Wetterdaten: Montag, 10.09.2018
Datum Zeit Temp. Aussen Temp. o. S. +5cm Feuchte Auss Luftdruck Regen Sonnenschein Regendauer Solar Windben Empfang
10.09.2018 00:00 16,6 C 16,1 C 15,0 C 77 % 1017,9 hPa 0,0 l/m 0 min 0 min 0 W/m 2,3 km/h (1 Bft) 100,00 %
10.09.2018 00:02 16,5 C 16,1 C 15,0 C 77 % 1017,8 hPa 0,0 l/m 0 min 0 min 0 W/m 0,0 km/h (0 Bft) 12,50 %
10.09.2018 00:04 16,5 C 16,1 C 15,0 C 77 % 1017,8 hPa 0,0 l/m 0 min 0 min 0 W/m 4,5 km/h (1 Bft) 85,37 %
10.09.2018 00:07 16,5 C 16,1 C 15,0 C 77 % 1017,7 hPa 0,0 l/m 0 min 0 min 0 W/m 6,8 km/h (2 Bft) 100,00 %
10.09.2018 00:08 16,5 C 16,1 C 15,0 C 77 % 1017,7 hPa 0,0 l/m 0 min 0 min 0 W/m 2,3 km/h (1 Bft) 100,00 %
10.09.2018 00:10 16,5 C 16,1 C 15,0 C 77 % 1017,7 hPa 0,0 l/m 0 min 0 min 0 W/m 4,5 km/h (1 Bft) 100,00 %
10.09.2018 00:12 16,5 C 16,1 C 15,0 C 77 % 1017,7 hPa 0,0 l/m 0 min 0 min 0 W/m 2,3 km/h (1 Bft) 100,00 %
10.09.2018 00:14 16,5 C 15,6 C 15,0 C 77 % 1017,6 hPa 0,0 l/m 0 min 0 min 0 W/m 2,3 km/h (1 Bft) 100,00 %
10.09.2018 00:16 16,5 C 15,6 C 15,0 C 77 % 1017,6 hPa 0,0 l/m 0 min 0 min 0 W/m 2,3 km/h (1 Bft) 100,00 %
10.09.2018 00:18 16,5 C 15,6 C 15,0 C 77 % 1017,6 hPa 0,0 l/m 0 min 0 min 0 W/m 2,3 km/h (1 Bft) 100,00 %
10.09.2018 00:20 16,5 C 15,6 C 15,0 C 77 % 1017,6 hPa 0,0 l/m 0 min 0 min 0 W/m 2,3 km/h (1 Bft) 100,00 %
10.09.2018 00:22 16,5 C 15,6 C 15,0 C 77 % 1017,6 hPa 0,0 l/m 0 min 0 min 0 W/m 2,3 km/h (1 Bft) 97,83 %
10.09.2018 00:24 16,5 C 15,6 C 15,0 C 77 % 1017,6 hPa 0,0 l/m 0 min 0 min 0 W/m 2,3 km/h (1 Bft) 100,00 %
10.09.2018 00:26 16,4 C 15,6 C 15,0 C 77 % 1017,6 hPa 0,0 l/m 0 min 0 min 0 W/m 2,3 km/h (1 Bft) 95,74 %
10.09.2018 00:28 16,4 C 15,6 C 15,0 C 77 % 1017,6 hPa 0,0 l/m 0 min 0 min 0 W/m 4,5 km/h (1 Bft) 93,62 %
10.09.2018 00:30 16,4 C 15,6 C 15,0 C 77 % 1017,6 hPa 0,0 l/m 0 min 0 min 0 W/m 4,5 km/h (1 Bft) 93,62 %
10.09.2018 00:32 16,4 C 15,6 C 15,0 C 77 % 1017,5 hPa 0,0 l/m 0 min 0 min 0 W/m 4,5 km/h (1 Bft) 95,74 %
10.09.2018 00:34 16,4 C 15,6 C 15,0 C 77 % 1017,6 hPa 0,0 l/m 0 min 0 min 0 W/m 4,5 km/h (1 Bft) 97,83 %
10.09.2018 00:38 16,4 C 15,6 C 15,0 C 77 % 1017,6 hPa 0,0 l/m 0 min 0 min 0 W/m 4,5 km/h (1 Bft) 95,74 %
10.09.2018 00:40 16,4 C 15,6 C 15,0 C 77 % 1017,6 hPa 0,0 l/m 0 min 0 min 0 W/m 2,3 km/h (1 Bft) 93,62 %
10.09.2018 00:42 16,4 C 15,6 C 15,0 C 77 % 1017,6 hPa 0,0 l/m 0 min 0 min 0 W/m 4,5 km/h (1 Bft) 95,74 %
10.09.2018 00:44 16,4 C 15,6 C 15,0 C 77 % 1017,6 hPa 0,0 l/m 0 min 0 min 0 W/m 2,3 km/h (1 Bft) 97,87 %
10.09.2018 00:46 16,4 C 15,6 C 15,0 C 77 % 1017,7 hPa 0,0 l/m 0 min 0 min 0 W/m 4,5 km/h (1 Bft) 95,65 %
10.09.2018 00:48 16,3 C 15,6 C 15,0 C 77 % 1017,6 hPa 0,0 l/m 0 min 0 min 0 W/m 6,8 km/h (2 Bft) 95,74 %
10.09.2018 00:50 16,3 C 15,6 C 15,0 C 77 % 1017,6 hPa 0,0 l/m 0 min 0 min 0 W/m 2,3 km/h (1 Bft) 95,74 %
10.09.2018 00:52 16,3 C 15,6 C 15,0 C 77 % 1017,6 hPa 0,0 l/m 0 min 0 min 0 W/m 4,5 km/h (1 Bft) 97,87 %
10.09.2018 00:54 16,3 C 15,6 C 15,0 C 77 % 1017,6 hPa 0,0 l/m 0 min 0 min 0 W/m 2,3 km/h (1 Bft) 95,74 %
10.09.2018 00:56 16,3 C 15,6 C 15,0 C 77 % 1017,6 hPa 0,0 l/m 0 min 0 min 0 W/m 2,3 km/h (1 Bft) 95,74 %
10.09.2018 00:58 16,3 C 15,6 C 15,0 C 77 % 1017,6 hPa 0,0 l/m 0 min 0 min 0 W/m 4,5 km/h (1 Bft) 93,48 %
10.09.2018 01:00 16,3 C 15,6 C 15,0 C 77 % 1017,6 hPa 0,0 l/m 0 min 0 min 0 W/m 4,5 km/h (1 Bft) 95,74 %
10.09.2018 01:02 16,3 C 15,6 C 15,0 C 78 % 1017,6 hPa 0,0 l/m 0 min 0 min 0 W/m 4,5 km/h (1 Bft) 93,62 %
10.09.2018 01:04 16,2 C 15,6 C 15,0 C 78 % 1017,6 hPa 0,0 l/m 0 min 0 min 0 W/m 6,8 km/h (2 Bft) 95,74 %
10.09.2018 01:06 16,2 C 15,6 C 15,0 C 78 % 1017,6 hPa 0,0 l/m 0 min 0 min 0 W/m 6,8 km/h (2 Bft) 95,35 %
10.09.2018 01:08 16,2 C 15,6 C 15,0 C 78 % 1017,6 hPa 0,0 l/m 0 min 0 min 0 W/m 4,5 km/h (1 Bft) 95,74 %
10.09.2018 01:10 16,2 C 15,6 C 15,0 C 78 % 1017,7 hPa 0,0 l/m 0 min 0 min 0 W/m 6,8 km/h (2 Bft) 95,74 %
10.09.2018 01:12 16,2 C 15,6 C 15,0 C 78 % 1017,7 hPa 0,0 l/m 0 min 0 min 0 W/m 4,5 km/h (1 Bft) 95,74 %
10.09.2018 01:14 16,2 C 15,6 C 15,0 C 78 % 1017,6 hPa 0,0 l/m 0 min 0 min 0 W/m 4,5 km/h (1 Bft) 93,62 %
10.09.2018 01:16 16,2 C 15,6 C 15,0 C 78 % 1017,7 hPa 0,0 l/m 0 min 0 min 0 W/m 2,3 km/h (1 Bft) 97,87 %
10.09.2018 01:18 16,2 C 15,6 C 15,0 C 78 % 1017,6 hPa 0,0 l/m 0 min 0 min 0 W/m 4,5 km/h (1 Bft) 97,83 %
10.09.2018 01:20 16,2 C 15,6 C 15,0 C 78 % 1017,6 hPa 0,0 l/m 0 min 0 min 0 W/m 6,8 km/h (2 Bft) 96,61 %
10.09.2018 01:22 16,2 C 15,6 C 15,0 C 78 % 1017,6 hPa 0,0 l/m 0 min 0 min 0 W/m 6,8 km/h (2 Bft) 94,29 %
10.09.2018 01:24 16,2 C 15,6 C 15,0 C 78 % 1017,6 hPa 0,0 l/m 0 min 0 min 0 W/m 6,8 km/h (2 Bft) 97,87 %
10.09.2018 01:26 16,2 C 15,6 C 15,0 C 78 % 1017,6 hPa 0,0 l/m 0 min 0 min 0 W/m 6,8 km/h (2 Bft) 95,74 %
10.09.2018 01:28 16,2 C 15,6 C 15,0 C 78 % 1017,5 hPa 0,0 l/m 0 min 0 min 0 W/m 4,5 km/h (1 Bft) 97,83 %
10.09.2018 01:30 16,2 C 15,6 C 15,0 C 78 % 1017,6 hPa 0,0 l/m 0 min 0 min 0 W/m 6,8 km/h (2 Bft) 100,00 %
10.09.2018 01:32 16,1 C 15,6 C 15,0 C 78 % 1017,6 hPa 0,0 l/m 0 min 0 min 0 W/m 4,5 km/h (1 Bft) 97,92 %
10.09.2018 01:34 16,1 C 15,6 C 15,0 C 78 % 1017,6 hPa 0,0 l/m 0 min 0 min 0 W/m 6,8 km/h (2 Bft) 100,00 %
10.09.2018 01:36 16,1 C 15,6 C 15,0 C 79 % 1017,6 hPa 0,0 l/m 0 min 0 min 0 W/m 2,3 km/h (1 Bft) 100,00 %
10.09.2018 01:38 16,1 C 15,6 C 15,0 C 79 % 1017,5 hPa 0,0 l/m 0 min 0 min 0 W/m 9,0 km/h (2 Bft) 100,00 %
10.09.2018 01:40 16,1 C 15,6 C 15,0 C 79 % 1017,5 hPa 0,0 l/m 0 min 0 min 0 W/m 6,8 km/h (2 Bft) 100,00 %
10.09.2018 01:42 16,1 C 15,6 C 15,0 C 79 % 1017,6 hPa 0,0 l/m 0 min 0 min 0 W/m 4,5 km/h (1 Bft) 100,00 %
10.09.2018 01:44 16,1 C 15,0 C 15,0 C 79 % 1017,5 hPa 0,0 l/m 0 min 0 min 0 W/m 6,8 km/h (2 Bft) 100,00 %
10.09.2018 01:46 16,1 C 15,0 C 15,0 C 79 % 1017,6 hPa 0,0 l/m 0 min 0 min 0 W/m 4,5 km/h (1 Bft) 97,83 %
10.09.2018 01:48 16,1 C 15,6 C 15,0 C 79 % 1017,6 hPa 0,0 l/m 0 min 0 min 0 W/m 6,8 km/h (2 Bft) 97,87 %
10.09.2018 01:50 16,1 C 15,6 C 15,0 C 80 % 1017,5 hPa 0,0 l/m 0 min 0 min 0 W/m 6,8 km/h (2 Bft) 100,00 %
10.09.2018 01:52 16,1 C 15,6 C 15,0 C 80 % 1017,6 hPa 0,0 l/m 0 min 0 min 0 W/m 6,8 km/h (2 Bft) 100,00 %
10.09.2018 01:54 16,1 C 15,6 C 15,0 C 80 % 1017,5 hPa 0,0 l/m 0 min 0 min 0 W/m 6,8 km/h (2 Bft) 100,00 %
10.09.2018 01:56 16,0 C 15,6 C 15,0 C 80 % 1017,5 hPa 0,0 l/m 0 min 0 min 0 W/m 6,8 km/h (2 Bft) 100,00 %
10.09.2018 01:58 16,1 C 15,6 C 15,0 C 80 % 1017,5 hPa 0,0 l/m 0 min 0 min 0 W/m 6,8 km/h (2 Bft) 100,00 %
10.09.2018 02:00 16,0 C 15,6 C 15,0 C 80 % 1017,6 hPa 0,0 l/m 0 min 0 min 0 W/m 4,5 km/h (1 Bft) 100,00 %
10.09.2018 02:02 16,0 C 15,6 C 15,0 C 80 % 1017,5 hPa 0,0 l/m 0 min 0 min 0 W/m 6,8 km/h (2 Bft) 97,87 %
10.09.2018 02:04 16,0 C 15,0 C 15,0 C 80 % 1017,5 hPa 0,0 l/m 0 min 0 min 0 W/m 6,8 km/h (2 Bft) 97,87 %
10.09.2018 02:06 16,0 C 15,0 C 15,0 C 80 % 1017,6 hPa 0,0 l/m 0 min 0 min 0 W/m 4,5 km/h (1 Bft) 97,87 %
10.09.2018 02:08 16,0 C 15,0 C 15,0 C 80 % 1017,6 hPa 0,0 l/m 0 min 0 min 0 W/m 4,5 km/h (1 Bft) 95,65 %
10.09.2018 02:10 16,0 C 15,0 C 15,0 C 80 % 1017,6 hPa 0,0 l/m 0 min 0 min 0 W/m 9,0 km/h (2 Bft) 97,87 %
10.09.2018 02:12 16,0 C 15,0 C 15,0 C 81 % 1017,6 hPa 0,0 l/m 0 min 0 min 0 W/m 4,5 km/h (1 Bft) 97,87 %
10.09.2018 02:14 15,9 C 15,0 C 15,0 C 81 % 1017,5 hPa 0,0 l/m 0 min 0 min 0 W/m 6,8 km/h (2 Bft) 97,87 %
10.09.2018 02:16 15,9 C 15,0 C 15,0 C 81 % 1017,5 hPa 0,0 l/m 0 min 0 min 0 W/m 6,8 km/h (2 Bft) 95,74 %
10.09.2018 02:18 15,9 C 15,0 C 15,0 C 81 % 1017,5 hPa 0,0 l/m 0 min 0 min 0 W/m 9,0 km/h (2 Bft) 97,87 %
10.09.2018 02:20 15,9 C 15,0 C 15,0 C 81 % 1017,4 hPa 0,0 l/m 0 min 0 min 0 W/m 4,5 km/h (1 Bft) 97,83 %
10.09.2018 02:22 15,9 C 15,0 C 15,0 C 81 % 1017,4 hPa 0,0 l/m 0 min 0 min 0 W/m 9,0 km/h (2 Bft) 97,87 %
10.09.2018 02:24 15,9 C 15,0 C 15,0 C 81 % 1017,4 hPa 0,0 l/m 0 min 0 min 0 W/m 4,5 km/h (1 Bft) 97,87 %
10.09.2018 02:26 15,9 C 15,0 C 15,0 C 81 % 1017,4 hPa 0,0 l/m 0 min 0 min 0 W/m 6,8 km/h (2 Bft) 97,87 %
10.09.2018 02:28 15,8 C 15,0 C 15,0 C 81 % 1017,3 hPa 0,0 l/m 0 min 0 min 0 W/m 4,5 km/h (1 Bft) 97,87 %
10.09.2018 02:30 15,8 C 15,0 C 15,0 C 81 % 1017,4 hPa 0,0 l/m 0 min 0 min 0 W/m 4,5 km/h (1 Bft) 97,87 %
10.09.2018 02:32 15,8 C 15,0 C 14,4 C 81 % 1017,5 hPa 0,0 l/m 0 min 0 min 0 W/m 4,5 km/h (1 Bft) 97,83 %
10.09.2018 02:34 15,8 C 15,0 C 14,4 C 81 % 1017,6 hPa 0,0 l/m 0 min 0 min 0 W/m 2,3 km/h (1 Bft) 97,87 %
10.09.2018 02:36 15,8 C 15,0 C 14,4 C 81 % 1017,5 hPa 0,0 l/m 0 min 0 min 0 W/m 4,5 km/h (1 Bft) 97,87 %
10.09.2018 02:38 15,8 C 15,0 C 14,4 C 81 % 1017,6 hPa 0,0 l/m 0 min 0 min 0 W/m 2,3 km/h (1 Bft) 97,87 %
10.09.2018 02:40 15,7 C 15,0 C 14,4 C 81 % 1017,6 hPa 0,0 l/m 0 min 0 min 0 W/m 2,3 km/h (1 Bft) 97,87 %
10.09.2018 02:42 15,7 C 15,0 C 14,4 C 82 % 1017,6 hPa 0,0 l/m 0 min 0 min 0 W/m 4,5 km/h (1 Bft) 97,83 %
10.09.2018 02:44 15,7 C 15,0 C 14,4 C 82 % 1017,6 hPa 0,0 l/m 0 min 0 min 0 W/m 2,3 km/h (1 Bft) 97,87 %
10.09.2018 02:46 15,7 C 15,0 C 14,4 C 82 % 1017,6 hPa 0,0 l/m 0 min 0 min 0 W/m 2,3 km/h (1 Bft) 97,87 %
10.09.2018 02:48 15,7 C 15,0 C 14,4 C 82 % 1017,6 hPa 0,0 l/m 0 min 0 min 0 W/m 0,0 km/h (0 Bft) 97,87 %
10.09.2018 02:50 15,7 C 15,0 C 14,4 C 82 % 1017,6 hPa 0,0 l/m 0 min 0 min 0 W/m 0,0 km/h (0 Bft) 97,87 %
10.09.2018 02:52 15,7 C 15,0 C 14,4 C 82 % 1017,7 hPa 0,0 l/m 0 min 0 min 0 W/m 0,0 km/h (0 Bft) 97,87 %
10.09.2018 02:54 15,7 C 14,4 C 14,4 C 82 % 1017,7 hPa 0,0 l/m 0 min 0 min 0 W/m 0,0 km/h (0 Bft) 97,83 %
10.09.2018 02:56 15,6 C 14,4 C 14,4 C 81 % 1017,7 hPa 0,0 l/m 0 min 0 min 0 W/m 0,0 km/h (0 Bft) 95,74 %
10.09.2018 02:58 15,6 C 14,4 C 14,4 C 82 % 1017,7 hPa 0,0 l/m 0 min 0 min 0 W/m 2,3 km/h (1 Bft) 97,87 %
10.09.2018 03:00 15,6 C 14,4 C 14,4 C 82 % 1017,8 hPa 0,0 l/m 0 min 0 min 0 W/m 2,3 km/h (1 Bft) 97,87 %
10.09.2018 03:02 15,6 C 14,4 C 14,4 C 82 % 1017,8 hPa 0,0 l/m 0 min 0 min 0 W/m 2,3 km/h (1 Bft) 97,87 %
10.09.2018 03:04 15,6 C 14,4 C 14,4 C 82 % 1018,1 hPa 0,0 l/m 0 min 0 min 0 W/m 2,3 km/h (1 Bft) 100,00 %
10.09.2018 03:06 15,6 C 14,4 C 14,4 C 82 % 1018,2 hPa 0,0 l/m 0 min 0 min 0 W/m 2,3 km/h (1 Bft) 95,65 %
10.09.2018 03:08 15,6 C 14,4 C 14,4 C 82 % 1018,2 hPa 0,0 l/m 0 min 0 min 0 W/m 0,0 km/h (0 Bft) 97,87 %
10.09.2018 03:10 15,5 C 14,4 C 14,4 C 82 % 1018,2 hPa 0,0 l/m 0 min 0 min 0 W/m 0,0 km/h (0 Bft) 100,00 %
10.09.2018 03:12 15,5 C 13,9 C 14,4 C 82 % 1018,2 hPa 0,0 l/m 0 min 0 min 0 W/m 0,0 km/h (0 Bft) 100,00 %
10.09.2018 03:14 15,4 C 13,9 C 14,4 C 83 % 1018,2 hPa 0,0 l/m 0 min 0 min 0 W/m 0,0 km/h (0 Bft) 95,74 %
10.09.2018 03:16 15,4 C 13,9 C 13,9 C 83 % 1018,2 hPa 0,0 l/m 0 min 0 min 0 W/m 0,0 km/h (0 Bft) 95,74 %
10.09.2018 03:18 15,4 C 13,9 C 13,9 C 83 % 1018,1 hPa 0,0 l/m 0 min 0 min 0 W/m 0,0 km/h (0 Bft) 93,48 %
10.09.2018 03:20 15,4 C 13,9 C 13,9 C 83 % 1018,1 hPa 0,0 l/m 0 min 0 min 0 W/m 0,0 km/h (0 Bft) 97,87 %
10.09.2018 03:22 15,4 C 13,3 C 13,9 C 83 % 1018,1 hPa 0,0 l/m 0 min 0 min 0 W/m 0,0 km/h (0 Bft) 95,74 %
10.09.2018 03:24 15,3 C 13,3 C 13,3 C 83 % 1018,1 hPa 0,0 l/m 0 min 0 min 0 W/m 0,0 km/h (0 Bft) 93,62 %
10.09.2018 03:26 15,3 C 13,3 C 13,3 C 83 % 1018,0 hPa 0,0 l/m 0 min 0 min 0 W/m 0,0 km/h (0 Bft) 95,74 %
10.09.2018 03:28 15,2 C 13,3 C 13,3 C 83 % 1018,1 hPa 0,0 l/m 0 min 0 min 0 W/m 0,0 km/h (0 Bft) 93,62 %
10.09.2018 03:30 15,2 C 13,3 C 13,3 C 83 % 1018,2 hPa 0,0 l/m 0 min 0 min 0 W/m 0,0 km/h (0 Bft) 97,78 %
10.09.2018 03:32 15,2 C 13,3 C 13,3 C 83 % 1018,2 hPa 0,0 l/m 0 min 0 min 0 W/m 0,0 km/h (0 Bft) 94,44 %
10.09.2018 03:34 15,2 C 13,3 C 13,3 C 83 % 1018,2 hPa 0,0 l/m 0 min 0 min 0 W/m 0,0 km/h (0 Bft) 95,65 %
10.09.2018 03:36 15,1 C 13,3 C 13,3 C 83 % 1018,1 hPa 0,0 l/m 0 min 0 min 0 W/m 0,0 km/h (0 Bft) 94,87 %
10.09.2018 03:38 15,1 C 13,9 C 13,3 C 83 % 1018,0 hPa 0,0 l/m 0 min 0 min 0 W/m 0,0 km/h (0 Bft) 95,65 %
10.09.2018 03:40 15,1 C 13,9 C 13,3 C 83 % 1018,1 hPa 0,0 l/m 0 min 0 min 0 W/m 0,0 km/h (0 Bft) 95,74 %
10.09.2018 03:42 15,0 C 13,9 C 13,3 C 84 % 1018,0 hPa 0,0 l/m 0 min 0 min 0 W/m 0,0 km/h (0 Bft) 95,74 %
10.09.2018 03:44 15,0 C 13,3 C 13,3 C 83 % 1017,9 hPa 0,0 l/m 0 min 0 min 0 W/m 0,0 km/h (0 Bft) 95,74 %
10.09.2018 03:46 14,9 C 13,3 C 13,3 C 83 % 1017,9 hPa 0,0 l/m 0 min 0 min 0 W/m 0,0 km/h (0 Bft) 95,74 %
10.09.2018 03:48 14,9 C 13,3 C 13,3 C 83 % 1017,9 hPa 0,0 l/m 0 min 0 min 0 W/m 0,0 km/h (0 Bft) 95,74 %
10.09.2018 03:50 14,9 C 13,3 C 13,3 C 83 % 1018,0 hPa 0,0 l/m 0 min 0 min 0 W/m 0,0 km/h (0 Bft) 93,48 %
10.09.2018 03:52 14,8 C 13,3 C 13,3 C 84 % 1018,0 hPa 0,0 l/m 0 min 0 min 0 W/m 0,0 km/h (0 Bft) 93,62 %
10.09.2018 03:54 14,8 C 13,3 C 13,3 C 84 % 1018,1 hPa 0,0 l/m 0 min 0 min 0 W/m 0,0 km/h (0 Bft) 95,74 %
10.09.2018 03:56 14,8 C 13,3 C 13,3 C 84 % 1017,9 hPa 0,0 l/m 0 min 0 min 0 W/m 0,0 km/h (0 Bft) 95,74 %
10.09.2018 03:58 14,7 C 13,3 C 12,8 C 84 % 1017,9 hPa 0,0 l/m 0 min 0 min 0 W/m 0,0 km/h (0 Bft) 95,74 %
10.09.2018 04:00 14,7 C 12,8 C 12,8 C 84 % 1017,8 hPa 0,0 l/m 0 min 0 min 0 W/m 0,0 km/h (0 Bft) 95,65 %
10.09.2018 04:02 14,7 C 12,8 C 12,8 C 84 % 1017,8 hPa 0,0 l/m 0 min 0 min 0 W/m 0,0 km/h (0 Bft) 100,00 %
10.09.2018 04:04 14,6 C 12,8 C 12,8 C 84 % 1017,9 hPa 0,0 l/m 0 min 0 min 0 W/m 0,0 km/h (0 Bft) 95,74 %
10.09.2018 04:08 14,6 C 12,8 C 12,8 C 84 % 1018,0 hPa 0,0 l/m 0 min 0 min 0 W/m 0,0 km/h (0 Bft) 100,00 %
10.09.2018 04:10 14,5 C 12,8 C 12,8 C 84 % 1017,9 hPa 0,0 l/m 0 min 0 min 0 W/m 0,0 km/h (0 Bft) 100,00 %
10.09.2018 04:12 14,5 C 12,8 C 12,8 C 85 % 1017,9 hPa 0,0 l/m 0 min 0 min 0 W/m 0,0 km/h (0 Bft) 97,87 %
10.09.2018 04:14 14,4 C 12,8 C 12,8 C 85 % 1018,0 hPa 0,0 l/m 0 min 0 min 0 W/m 0,0 km/h (0 Bft) 97,87 %
10.09.2018 04:16 14,4 C 12,8 C 12,8 C 85 % 1017,9 hPa 0,0 l/m 0 min 0 min 0 W/m 0,0 km/h (0 Bft) 100,00 %
10.09.2018 04:18 14,4 C 12,8 C 12,8 C 85 % 1017,9 hPa 0,0 l/m 0 min 0 min 0 W/m 0,0 km/h (0 Bft) 100,00 %
10.09.2018 04:20 14,3 C 13,3 C 12,8 C 85 % 1017,9 hPa 0,0 l/m 0 min 0 min 0 W/m 0,0 km/h (0 Bft) 100,00 %
10.09.2018 04:22 14,3 C 13,3 C 12,8 C 85 % 1017,8 hPa 0,0 l/m 0 min 0 min 0 W/m 0,0 km/h (0 Bft) 97,87 %
10.09.2018 04:24 14,3 C 13,9 C 12,8 C 85 % 1017,8 hPa 0,0 l/m 0 min 0 min 0 W/m 0,0 km/h (0 Bft) 97,87 %
10.09.2018 04:26 14,2 C 13,9 C 12,8 C 85 % 1017,7 hPa 0,0 l/m 0 min 0 min 0 W/m 0,0 km/h (0 Bft) 100,00 %
10.09.2018 04:28 14,2 C 13,9 C 12,8 C 86 % 1017,8 hPa 0,0 l/m 0 min 0 min 0 W/m 2,3 km/h (1 Bft) 100,00 %
10.09.2018 04:30 14,2 C 13,9 C 12,8 C 86 % 1017,8 hPa 0,0 l/m 0 min 0 min 0 W/m 0,0 km/h (0 Bft) 100,00 %
10.09.2018 04:32 14,2 C 13,9 C 12,8 C 86 % 1017,8 hPa 0,0 l/m 0 min 0 min 0 W/m 0,0 km/h (0 Bft) 97,87 %
10.09.2018 04:34 14,2 C 13,9 C 12,8 C 86 % 1017,8 hPa 0,0 l/m 0 min 0 min 0 W/m 0,0 km/h (0 Bft) 100,00 %
10.09.2018 04:36 14,2 C 13,9 C 12,8 C 86 % 1017,8 hPa 0,0 l/m 0 min 0 min 0 W/m 0,0 km/h (0 Bft) 100,00 %
10.09.2018 04:38 14,2 C 13,9 C 12,8 C 86 % 1017,8 hPa 0,0 l/m 0 min 0 min 0 W/m 0,0 km/h (0 Bft) 100,00 %
10.09.2018 04:40 14,2 C 13,9 C 13,3 C 86 % 1017,8 hPa 0,0 l/m 0 min 0 min 0 W/m 0,0 km/h (0 Bft) 100,00 %
10.09.2018 04:42 14,2 C 13,9 C 13,3 C 87 % 1017,8 hPa 0,0 l/m 0 min 0 min 0 W/m 0,0 km/h (0 Bft) 97,87 %
10.09.2018 04:44 14,2 C 13,9 C 13,3 C 87 % 1017,8 hPa 0,0 l/m 0 min 0 min 0 W/m 0,0 km/h (0 Bft) 100,00 %
10.09.2018 04:46 14,2 C 13,9 C 13,3 C 87 % 1017,8 hPa 0,0 l/m 0 min 0 min 0 W/m 0,0 km/h (0 Bft) 100,00 %
10.09.2018 04:48 14,2 C 13,3 C 13,3 C 87 % 1017,9 hPa 0,0 l/m 0 min 0 min 0 W/m 0,0 km/h (0 Bft) 100,00 %
10.09.2018 04:50 14,2 C 13,3 C 13,3 C 87 % 1017,9 hPa 0,0 l/m 0 min 0 min 0 W/m 0,0 km/h (0 Bft) 100,00 %
10.09.2018 04:52 14,2 C 13,3 C 13,3 C 87 % 1018,0 hPa 0,0 l/m 0 min 0 min 0 W/m 0,0 km/h (0 Bft) 100,00 %
10.09.2018 04:54 14,2 C 13,3 C 13,3 C 87 % 1018,0 hPa 0,0 l/m 0 min 0 min 0 W/m 0,0 km/h (0 Bft) 100,00 %
10.09.2018 04:56 14,2 C 13,3 C 13,3 C 87 % 1018,2 hPa 0,0 l/m 0 min 0 min 0 W/m 0,0 km/h (0 Bft) 100,00 %
10.09.2018 04:58 14,2 C 13,3 C 13,3 C 87 % 1018,2 hPa 0,0 l/m 0 min 0 min 0 W/m 0,0 km/h (0 Bft) 100,00 %
10.09.2018 05:00 14,2 C 13,3 C 13,3 C 87 % 1018,1 hPa 0,0 l/m 0 min 0 min 0 W/m 0,0 km/h (0 Bft) 100,00 %
10.09.2018 05:02 14,2 C 13,3 C 13,3 C 87 % 1018,0 hPa 0,0 l/m 0 min 0 min 0 W/m 0,0 km/h (0 Bft) 97,87 %
10.09.2018 05:04 14,2 C 13,3 C 13,3 C 87 % 1018,2 hPa 0,0 l/m 0 min 0 min 0 W/m 0,0 km/h (0 Bft) 100,00 %
10.09.2018 05:06 14,2 C 13,3 C 13,3 C 87 % 1018,2 hPa 0,0 l/m 0 min 0 min 0 W/m 0,0 km/h (0 Bft) 100,00 %
10.09.2018 05:08 14,2 C 13,3 C 13,3 C 87 % 1018,2 hPa 0,0 l/m 0 min 0 min 0 W/m 0,0 km/h (0 Bft) 100,00 %
10.09.2018 05:10 14,2 C 13,9 C 13,3 C 87 % 1018,2 hPa 0,0 l/m 0 min 0 min 0 W/m 0,0 km/h (0 Bft) 100,00 %
10.09.2018 05:12 14,2 C 13,9 C 13,3 C 87 % 1018,2 hPa 0,0 l/m 0 min 0 min 0 W/m 0,0 km/h (0 Bft) 100,00 %
10.09.2018 05:14 14,2 C 13,9 C 13,3 C 87 % 1018,2 hPa 0,0 l/m 0 min 0 min 0 W/m 0,0 km/h (0 Bft) 100,00 %
10.09.2018 05:16 14,2 C 13,9 C 13,3 C 87 % 1018,2 hPa 0,0 l/m 0 min 0 min 0 W/m 0,0 km/h (0 Bft) 100,00 %
10.09.2018 05:18 14,2 C 13,9 C 13,3 C 88 % 1018,2 hPa 0,0 l/m 0 min 0 min 0 W/m 0,0 km/h (0 Bft) 100,00 %
10.09.2018 05:20 14,2 C 13,9 C 13,9 C 88 % 1018,2 hPa 0,0 l/m 0 min 0 min 0 W/m 0,0 km/h (0 Bft) 100,00 %
10.09.2018 05:22 14,2 C 13,9 C 13,9 C 88 % 1018,2 hPa 0,0 l/m 0 min 0 min 0 W/m 0,0 km/h (0 Bft) 100,00 %
10.09.2018 05:24 14,2 C 13,9 C 13,9 C 88 % 1018,2 hPa 0,0 l/m 0 min 0 min 0 W/m 0,0 km/h (0 Bft) 100,00 %
10.09.2018 05:26 14,2 C 13,9 C 13,9 C 88 % 1018,2 hPa 0,0 l/m 0 min 0 min 0 W/m 0,0 km/h (0 Bft) 100,00 %
10.09.2018 05:28 14,2 C 13,9 C 13,9 C 88 % 1018,2 hPa 0,0 l/m 0 min 0 min 0 W/m 0,0 km/h (0 Bft) 97,87 %
10.09.2018 05:30 14,2 C 13,9 C 13,9 C 88 % 1018,3 hPa 0,0 l/m 0 min 0 min 0 W/m 0,0 km/h (0 Bft) 100,00 %
10.09.2018 05:32 14,2 C 13,9 C 13,9 C 88 % 1018,3 hPa 0,0 l/m 0 min 0 min 0 W/m 0,0 km/h (0 Bft) 95,65 %
10.09.2018 05:34 14,2 C 13,9 C 13,9 C 88 % 1018,4 hPa 0,0 l/m 0 min 0 min 0 W/m 0,0 km/h (0 Bft) 97,87 %
10.09.2018 05:36 14,2 C 13,9 C 13,9 C 88 % 1018,4 hPa 0,0 l/m 0 min 0 min 0 W/m 0,0 km/h (0 Bft) 100,00 %
10.09.2018 05:40 14,2 C 13,9 C 13,9 C 88 % 1018,3 hPa 0,0 l/m 0 min 0 min 0 W/m 0,0 km/h (0 Bft) 86,96 %
10.09.2018 05:45 14,2 C 13,9 C 13,9 C 88 % 1018,5 hPa 0,0 l/m 0 min 0 min 0 W/m 2,3 km/h (1 Bft) 100,00 %
10.09.2018 05:46 14,2 C 13,9 C 13,9 C 88 % 1018,5 hPa 0,0 l/m 0 min 0 min 0 W/m 0,0 km/h (0 Bft) 100,00 %
10.09.2018 05:48 14,2 C 13,9 C 13,9 C 88 % 1018,5 hPa 0,0 l/m 0 min 0 min 0 W/m 0,0 km/h (0 Bft) 93,62 %
10.09.2018 05:50 14,2 C 13,9 C 13,9 C 88 % 1018,6 hPa 0,0 l/m 0 min 0 min 0 W/m 0,0 km/h (0 Bft) 97,83 %
10.09.2018 05:52 14,2 C 14,4 C 13,9 C 88 % 1018,6 hPa 0,0 l/m 0 min 0 min 0 W/m 0,0 km/h (0 Bft) 95,74 %
10.09.2018 05:54 14,2 C 14,4 C 13,9 C 88 % 1018,4 hPa 0,0 l/m 0 min 0 min 0 W/m 0,0 km/h (0 Bft) 97,92 %
10.09.2018 05:56 14,2 C 14,4 C 13,9 C 88 % 1018,5 hPa 0,0 l/m 0 min 0 min 0 W/m 0,0 km/h (0 Bft) 95,83 %
10.09.2018 05:58 14,2 C 14,4 C 13,9 C 88 % 1018,5 hPa 0,0 l/m 0 min 0 min 0 W/m 0,0 km/h (0 Bft) 95,74 %
10.09.2018 06:00 14,2 C 14,4 C 13,9 C 88 % 1018,5 hPa 0,0 l/m 0 min 0 min 0 W/m 0,0 km/h (0 Bft) 95,74 %
10.09.2018 06:02 14,2 C 14,4 C 13,9 C 88 % 1018,5 hPa 0,0 l/m 0 min 0 min 0 W/m 0,0 km/h (0 Bft) 95,12 %
10.09.2018 06:04 14,3 C 14,4 C 13,9 C 88 % 1018,5 hPa 0,0 l/m 0 min 0 min 0 W/m 0,0 km/h (0 Bft) 94,00 %
10.09.2018 06:06 14,3 C 14,4 C 13,9 C 88 % 1018,5 hPa 0,0 l/m 0 min 0 min 0 W/m 0,0 km/h (0 Bft) 91,67 %
10.09.2018 06:08 14,3 C 14,4 C 13,9 C 88 % 1018,5 hPa 0,0 l/m 0 min 0 min 0 W/m 0,0 km/h (0 Bft) 93,75 %
10.09.2018 06:10 14,3 C 13,9 C 13,9 C 88 % 1018,6 hPa 0,0 l/m 0 min 0 min 0 W/m 0,0 km/h (0 Bft) 91,49 %
10.09.2018 06:12 14,4 C 13,9 C 13,9 C 88 % 1018,6 hPa 0,0 l/m 0 min 0 min 0 W/m 0,0 km/h (0 Bft) 93,62 %
10.09.2018 06:14 14,4 C 13,9 C 13,9 C 88 % 1018,6 hPa 0,0 l/m 0 min 0 min 0 W/m 0,0 km/h (0 Bft) 91,49 %
10.09.2018 06:16 14,4 C 14,4 C 13,9 C 88 % 1018,5 hPa 0,0 l/m 0 min 0 min 0 W/m 0,0 km/h (0 Bft) 93,62 %
10.09.2018 06:18 14,4 C 14,4 C 13,9 C 88 % 1018,5 hPa 0,0 l/m 0 min 0 min 0 W/m 0,0 km/h (0 Bft) 95,65 %
10.09.2018 06:20 14,4 C 14,4 C 13,9 C 88 % 1018,4 hPa 0,0 l/m 0 min 0 min 0 W/m 0,0 km/h (0 Bft) 93,62 %
10.09.2018 06:22 14,4 C 14,4 C 13,9 C 88 % 1018,4 hPa 0,0 l/m 0 min 0 min 0 W/m 0,0 km/h (0 Bft) 93,62 %
10.09.2018 06:24 14,5 C 14,4 C 13,9 C 88 % 1018,4 hPa 0,0 l/m 0 min 0 min 0 W/m 0,0 km/h (0 Bft) 93,62 %
10.09.2018 06:26 14,5 C 14,4 C 13,9 C 88 % 1018,4 hPa 0,0 l/m 0 min 0 min 0 W/m 2,3 km/h (1 Bft) 93,62 %
10.09.2018 06:28 14,5 C 14,4 C 13,9 C 88 % 1018,5 hPa 0,0 l/m 0 min 0 min 0 W/m 0,0 km/h (0 Bft) 91,49 %
10.09.2018 06:30 14,5 C 14,4 C 13,9 C 88 % 1018,5 hPa 0,0 l/m 0 min 0 min 0 W/m 0,0 km/h (0 Bft) 93,48 %
10.09.2018 06:32 14,6 C 14,4 C 13,9 C 88 % 1018,5 hPa 0,0 l/m 0 min 0 min 0 W/m 0,0 km/h (0 Bft) 93,88 %
10.09.2018 06:34 14,6 C 14,4 C 13,9 C 88 % 1018,5 hPa 0,0 l/m 0 min 0 min 0 W/m 0,0 km/h (0 Bft) 97,87 %
10.09.2018 06:36 14,6 C 14,4 C 13,9 C 88 % 1018,5 hPa 0,0 l/m 0 min 0 min 0 W/m 0,0 km/h (0 Bft) 93,62 %
10.09.2018 06:38 14,6 C 14,4 C 13,9 C 88 % 1018,4 hPa 0,0 l/m 0 min 0 min 0 W/m 0,0 km/h (0 Bft) 93,62 %
10.09.2018 06:40 14,6 C 14,4 C 13,9 C 88 % 1018,5 hPa 0,0 l/m 0 min 0 min 0 W/m 0,0 km/h (0 Bft) 93,62 %
10.09.2018 06:42 14,6 C 13,9 C 13,9 C 88 % 1018,5 hPa 0,0 l/m 0 min 0 min 0 W/m 0,0 km/h (0 Bft) 95,65 %
10.09.2018 06:44 14,6 C 13,9 C 13,9 C 88 % 1018,5 hPa 0,0 l/m 0 min 0 min 0 W/m 0,0 km/h (0 Bft) 93,62 %
10.09.2018 06:46 14,6 C 13,9 C 13,9 C 88 % 1018,6 hPa 0,0 l/m 0 min 0 min 0 W/m 0,0 km/h (0 Bft) 95,74 %
10.09.2018 06:48 14,6 C 13,9 C 13,9 C 88 % 1018,6 hPa 0,0 l/m 0 min 0 min 0 W/m 0,0 km/h (0 Bft) 95,74 %
10.09.2018 06:50 14,6 C 13,9 C 13,9 C 88 % 1018,6 hPa 0,0 l/m 0 min 0 min 0 W/m 0,0 km/h (0 Bft) 95,74 %
10.09.2018 06:52 14,6 C 13,9 C 13,9 C 88 % 1018,6 hPa 0,0 l/m 0 min 0 min 0 W/m 0,0 km/h (0 Bft) 95,65 %
10.09.2018 06:54 14,7 C 13,9 C 13,9 C 88 % 1018,6 hPa 0,0 l/m 0 min 0 min 0 W/m 0,0 km/h (0 Bft) 92,86 %
10.09.2018 06:56 14,7 C 13,9 C 13,9 C 88 % 1018,6 hPa 0,0 l/m 0 min 0 min 0 W/m 2,3 km/h (1 Bft) 97,87 %
10.09.2018 06:58 14,7 C 14,4 C 13,9 C 88 % 1018,6 hPa 0,0 l/m 0 min 0 min 0 W/m 0,0 km/h (0 Bft) 100,00 %
10.09.2018 07:00 14,7 C 14,4 C 13,9 C 88 % 1018,7 hPa 0,0 l/m 0 min 0 min 0 W/m 0,0 km/h (0 Bft) 100,00 %
10.09.2018 07:02 14,7 C 14,4 C 13,9 C 88 % 1018,6 hPa 0,0 l/m 0 min 0 min 0 W/m 0,0 km/h (0 Bft) 94,55 %
10.09.2018 07:04 14,7 C 14,4 C 14,4 C 88 % 1018,7 hPa 0,0 l/m 0 min 0 min 0 W/m 0,0 km/h (0 Bft) 97,62 %
10.09.2018 07:06 14,7 C 14,4 C 14,4 C 88 % 1018,7 hPa 0,0 l/m 0 min 0 min 0 W/m 0,0 km/h (0 Bft) 100,00 %
10.09.2018 07:08 14,7 C 14,4 C 14,4 C 88 % 1018,7 hPa 0,0 l/m 0 min 0 min 0 W/m 0,0 km/h (0 Bft) 100,00 %
10.09.2018 07:10 14,7 C 14,4 C 14,4 C 88 % 1018,7 hPa 0,0 l/m 0 min 0 min 4 W/m 0,0 km/h (0 Bft) 100,00 %
10.09.2018 07:12 14,7 C 14,4 C 14,4 C 88 % 1018,7 hPa 0,0 l/m 0 min 0 min 5 W/m 0,0 km/h (0 Bft) 97,87 %
10.09.2018 07:14 14,7 C 14,4 C 13,9 C 88 % 1018,7 hPa 0,0 l/m 0 min 0 min 6 W/m 0,0 km/h (0 Bft) 100,00 %
10.09.2018 07:16 14,7 C 14,4 C 14,4 C 88 % 1018,8 hPa 0,0 l/m 0 min 0 min 8 W/m 0,0 km/h (0 Bft) 100,00 %
10.09.2018 07:18 14,8 C 14,4 C 14,4 C 88 % 1018,8 hPa 0,0 l/m 0 min 0 min 10 W/m 0,0 km/h (0 Bft) 97,87 %
10.09.2018 07:20 14,8 C 14,4 C 14,4 C 88 % 1018,9 hPa 0,0 l/m 0 min 0 min 11 W/m 0,0 km/h (0 Bft) 100,00 %
10.09.2018 07:22 14,8 C 14,4 C 14,4 C 88 % 1018,8 hPa 0,0 l/m 0 min 0 min 12 W/m 0,0 km/h (0 Bft) 95,65 %
10.09.2018 07:24 14,8 C 14,4 C 14,4 C 88 % 1018,9 hPa 0,0 l/m 0 min 0 min 12 W/m 2,3 km/h (1 Bft) 97,92 %
10.09.2018 07:26 14,8 C 14,4 C 14,4 C 88 % 1018,9 hPa 0,0 l/m 0 min 0 min 14 W/m 0,0 km/h (0 Bft) 100,00 %
10.09.2018 07:28 14,8 C 14,4 C 14,4 C 89 % 1018,8 hPa 0,0 l/m 0 min 0 min 15 W/m 0,0 km/h (0 Bft) 100,00 %
10.09.2018 07:30 14,8 C 14,4 C 14,4 C 89 % 1018,9 hPa 0,0 l/m 0 min 0 min 16 W/m 0,0 km/h (0 Bft) 100,00 %
10.09.2018 07:32 14,8 C 14,4 C 14,4 C 89 % 1018,8 hPa 0,0 l/m 0 min 0 min 18 W/m 0,0 km/h (0 Bft) 100,00 %
10.09.2018 07:34 14,8 C 14,4 C 14,4 C 89 % 1019,0 hPa 0,0 l/m 0 min 0 min 19 W/m 0,0 km/h (0 Bft) 100,00 %
10.09.2018 07:36 14,8 C 14,4 C 14,4 C 89 % 1018,9 hPa 0,0 l/m 0 min 0 min 21 W/m 0,0 km/h (0 Bft) 97,87 %
10.09.2018 07:38 14,8 C 14,4 C 14,4 C 89 % 1018,9 hPa 0,0 l/m 0 min 0 min 23 W/m 0,0 km/h (0 Bft) 97,83 %
10.09.2018 07:40 14,9 C 14,4 C 14,4 C 89 % 1019,0 hPa 0,0 l/m 0 min 0 min 23 W/m 0,0 km/h (0 Bft) 100,00 %
10.09.2018 07:42 14,9 C 14,4 C 14,4 C 89 % 1019,0 hPa 0,0 l/m 0 min 0 min 23 W/m 0,0 km/h (0 Bft) 100,00 %
10.09.2018 07:44 14,9 C 14,4 C 14,4 C 89 % 1019,0 hPa 0,0 l/m 0 min 0 min 25 W/m 0,0 km/h (0 Bft) 100,00 %
10.09.2018 07:46 14,9 C 14,4 C 14,4 C 89 % 1018,9 hPa 0,0 l/m 0 min 0 min 24 W/m 0,0 km/h (0 Bft) 100,00 %
10.09.2018 07:48 14,9 C 14,4 C 14,4 C 89 % 1018,9 hPa 0,0 l/m 0 min 0 min 29 W/m 0,0 km/h (0 Bft) 100,00 %
10.09.2018 07:50 14,9 C 14,4 C 14,4 C 89 % 1019,1 hPa 0,0 l/m 0 min 0 min 32 W/m 0,0 km/h (0 Bft) 100,00 %
10.09.2018 07:52 14,9 C 15,0 C 14,4 C 89 % 1019,1 hPa 0,0 l/m 0 min 0 min 32 W/m 0,0 km/h (0 Bft) 100,00 %
10.09.2018 07:54 15,0 C 15,0 C 14,4 C 89 % 1019,1 hPa 0,0 l/m 0 min 0 min 30 W/m 0,0 km/h (0 Bft) 97,87 %
10.09.2018 07:56 15,0 C 15,0 C 14,4 C 90 % 1019,2 hPa 0,0 l/m 0 min 0 min 24 W/m 4,5 km/h (1 Bft) 97,87 %
10.09.2018 07:58 15,0 C 15,0 C 14,4 C 90 % 1019,3 hPa 0,0 l/m 0 min 0 min 21 W/m 0,0 km/h (0 Bft) 97,87 %
10.09.2018 08:00 15,1 C 15,0 C 14,4 C 90 % 1019,4 hPa 0,0 l/m 0 min 0 min 21 W/m 0,0 km/h (0 Bft) 100,00 %
10.09.2018 08:02 15,1 C 15,0 C 14,4 C 90 % 1019,3 hPa 0,0 l/m 0 min 0 min 24 W/m 0,0 km/h (0 Bft) 97,96 %
10.09.2018 08:04 15,1 C 15,0 C 14,4 C 90 % 1019,3 hPa 0,0 l/m 0 min 0 min 26 W/m 2,3 km/h (1 Bft) 97,62 %
10.09.2018 08:06 15,1 C 15,0 C 14,4 C 90 % 1019,4 hPa 0,0 l/m 0 min 0 min 29 W/m 0,0 km/h (0 Bft) 100,00 %
10.09.2018 08:08 15,1 C 15,0 C 14,4 C 90 % 1019,4 hPa 0,0 l/m 0 min 0 min 32 W/m 2,3 km/h (1 Bft) 100,00 %
10.09.2018 08:10 15,1 C 15,0 C 14,4 C 90 % 1019,4 hPa 0,0 l/m 0 min 0 min 32 W/m 0,0 km/h (0 Bft) 97,87 %
10.09.2018 08:12 15,2 C 15,0 C 15,0 C 90 % 1019,4 hPa 0,0 l/m 0 min 0 min 32 W/m 0,0 km/h (0 Bft) 97,92 %
10.09.2018 08:14 15,2 C 15,0 C 15,0 C 89 % 1019,4 hPa 0,0 l/m 0 min 0 min 32 W/m 0,0 km/h (0 Bft) 100,00 %
10.09.2018 08:16 15,2 C 15,0 C 15,0 C 89 % 1019,3 hPa 0,0 l/m 0 min 0 min 36 W/m 2,3 km/h (1 Bft) 95,74 %
10.09.2018 08:18 15,2 C 15,0 C 15,0 C 89 % 1019,3 hPa 0,0 l/m 0 min 0 min 40 W/m 2,3 km/h (1 Bft) 97,83 %
10.09.2018 08:20 15,2 C 15,0 C 15,0 C 89 % 1019,3 hPa 0,0 l/m 0 min 0 min 45 W/m 0,0 km/h (0 Bft) 97,87 %
10.09.2018 08:22 15,3 C 15,0 C 15,0 C 89 % 1019,2 hPa 0,0 l/m 0 min 0 min 47 W/m 2,3 km/h (1 Bft) 97,87 %
10.09.2018 08:24 15,3 C 15,0 C 15,0 C 89 % 1019,1 hPa 0,0 l/m 0 min 0 min 51 W/m 2,3 km/h (1 Bft) 100,00 %
10.09.2018 08:26 15,3 C 15,0 C 15,0 C 89 % 1019,1 hPa 0,0 l/m 0 min 0 min 53 W/m 2,3 km/h (1 Bft) 97,92 %
10.09.2018 08:28 15,3 C 15,6 C 15,0 C 90 % 1019,1 hPa 0,0 l/m 0 min 0 min 54 W/m 4,5 km/h (1 Bft) 97,92 %
10.09.2018 08:30 15,3 C 15,6 C 15,0 C 89 % 1019,1 hPa 0,0 l/m 0 min 0 min 55 W/m 2,3 km/h (1 Bft) 97,87 %
10.09.2018 08:32 15,4 C 15,6 C 15,0 C 89 % 1019,1 hPa 0,0 l/m 0 min 0 min 57 W/m 0,0 km/h (0 Bft) 97,87 %
10.09.2018 08:34 15,4 C 15,6 C 15,0 C 89 % 1019,1 hPa 0,0 l/m 0 min 0 min 60 W/m 2,3 km/h (1 Bft) 100,00 %
10.09.2018 08:36 15,4 C 15,6 C 15,0 C 89 % 1019,1 hPa 0,0 l/m 0 min 0 min 63 W/m 0,0 km/h (0 Bft) 97,83 %
10.09.2018 08:38 15,4 C 15,6 C 15,0 C 89 % 1019,2 hPa 0,0 l/m 0 min 0 min 63 W/m 0,0 km/h (0 Bft) 97,87 %
10.09.2018 08:40 15,5 C 15,6 C 15,0 C 89 % 1019,3 hPa 0,0 l/m 0 min 0 min 62 W/m 0,0 km/h (0 Bft) 97,87 %
10.09.2018 08:42 15,5 C 15,6 C 15,0 C 89 % 1019,3 hPa 0,0 l/m 0 min 0 min 64 W/m 0,0 km/h (0 Bft) 100,00 %
10.09.2018 08:44 15,6 C 15,6 C 15,0 C 89 % 1019,3 hPa 0,0 l/m 0 min 0 min 68 W/m 2,3 km/h (1 Bft) 95,74 %
10.09.2018 08:46 15,6 C 15,6 C 15,0 C 89 % 1019,3 hPa 0,0 l/m 0 min 0 min 73 W/m 2,3 km/h (1 Bft) 97,87 %
10.09.2018 08:48 15,6 C 15,6 C 15,0 C 89 % 1019,2 hPa 0,0 l/m 0 min 0 min 76 W/m 0,0 km/h (0 Bft) 95,74 %
10.09.2018 08:50 15,6 C 15,6 C 15,0 C 89 % 1019,2 hPa 0,0 l/m 0 min 0 min 81 W/m 0,0 km/h (0 Bft) 95,65 %
10.09.2018 08:52 15,7 C 15,6 C 15,0 C 89 % 1019,2 hPa 0,0 l/m 0 min 0 min 89 W/m 2,3 km/h (1 Bft) 95,83 %
10.09.2018 08:54 15,7 C 15,6 C 15,0 C 89 % 1019,2 hPa 0,0 l/m 0 min 0 min 97 W/m 0,0 km/h (0 Bft) 94,29 %
10.09.2018 08:56 15,7 C 16,1 C 15,0 C 89 % 1019,1 hPa 0,0 l/m 0 min 0 min 105 W/m 4,5 km/h (1 Bft) 95,74 %
10.09.2018 08:58 15,7 C 16,1 C 15,0 C 90 % 1019,3 hPa 0,0 l/m 0 min 0 min 115 W/m 4,5 km/h (1 Bft) 95,74 %
10.09.2018 09:00 15,8 C 16,1 C 15,0 C 90 % 1019,3 hPa 0,0 l/m 0 min 0 min 124 W/m 4,5 km/h (1 Bft) 95,74 %
10.09.2018 09:02 15,8 C 16,1 C 15,6 C 90 % 1019,2 hPa 0,0 l/m 0 min 0 min 134 W/m 2,3 km/h (1 Bft) 95,65 %
10.09.2018 09:04 15,8 C 16,7 C 15,6 C 90 % 1019,2 hPa 0,0 l/m 0 min 0 min 140 W/m 0,0 km/h (0 Bft) 95,74 %
10.09.2018 09:06 15,9 C 16,7 C 15,6 C 90 % 1019,3 hPa 0,0 l/m 0 min 0 min 143 W/m 2,3 km/h (1 Bft) 93,62 %
10.09.2018 09:08 15,9 C 16,7 C 15,6 C 90 % 1019,3 hPa 0,0 l/m 0 min 0 min 141 W/m 0,0 km/h (0 Bft) 95,74 %
10.09.2018 09:10 16,0 C 16,7 C 15,6 C 90 % 1019,4 hPa 0,0 l/m 0 min 0 min 138 W/m 0,0 km/h (0 Bft) 95,74 %
10.09.2018 09:12 16,0 C 16,7 C 15,6 C 90 % 1019,5 hPa 0,0 l/m 0 min 0 min 138 W/m 2,3 km/h (1 Bft) 95,83 %
10.09.2018 09:14 16,1 C 16,7 C 15,6 C 90 % 1019,5 hPa 0,0 l/m 0 min 0 min 143 W/m 4,5 km/h (1 Bft) 95,65 %
10.09.2018 09:16 16,1 C 16,7 C 15,6 C 90 % 1019,5 hPa 0,0 l/m 0 min 0 min 151 W/m 4,5 km/h (1 Bft) 95,74 %
10.09.2018 09:18 16,2 C 16,7 C 15,6 C 90 % 1019,5 hPa 0,0 l/m 0 min 0 min 163 W/m 4,5 km/h (1 Bft) 97,87 %
10.09.2018 09:20 16,2 C 16,7 C 15,6 C 90 % 1019,4 hPa 0,0 l/m 2 min 0 min 176 W/m 0,0 km/h (0 Bft) 97,87 %
10.09.2018 09:22 16,2 C 17,2 C 15,6 C 90 % 1019,5 hPa 0,0 l/m 2 min 0 min 187 W/m 2,3 km/h (1 Bft) 97,87 %
10.09.2018 09:24 16,3 C 17,2 C 16,1 C 90 % 1019,5 hPa 0,0 l/m 2 min 0 min 195 W/m 2,3 km/h (1 Bft) 97,87 %
10.09.2018 09:26 16,3 C 17,2 C 16,1 C 90 % 1019,4 hPa 0,0 l/m 2 min 0 min 203 W/m 6,8 km/h (2 Bft) 97,83 %
10.09.2018 09:28 16,4 C 17,2 C 16,1 C 90 % 1019,5 hPa 0,0 l/m 2 min 0 min 204 W/m 2,3 km/h (1 Bft) 97,87 %
10.09.2018 09:30 16,4 C 17,2 C 16,1 C 90 % 1019,5 hPa 0,0 l/m 2 min 0 min 205 W/m 2,3 km/h (1 Bft) 97,87 %
10.09.2018 09:32 16,5 C 17,2 C 16,1 C 90 % 1019,5 hPa 0,0 l/m 2 min 0 min 231 W/m 6,8 km/h (2 Bft) 93,62 %
10.09.2018 09:34 16,6 C 17,2 C 16,1 C 90 % 1019,5 hPa 0,0 l/m 2 min 0 min 210 W/m 2,3 km/h (1 Bft) 97,87 %
10.09.2018 09:36 16,6 C 17,2 C 16,1 C 89 % 1019,6 hPa 0,0 l/m 2 min 0 min 205 W/m 2,3 km/h (1 Bft) 95,74 %
10.09.2018 09:38 16,7 C 17,8 C 16,1 C 89 % 1019,5 hPa 0,0 l/m 2 min 0 min 207 W/m 2,3 km/h (1 Bft) 97,83 %
10.09.2018 09:40 16,7 C 17,8 C 16,1 C 89 % 1019,4 hPa 0,0 l/m 2 min 0 min 225 W/m 2,3 km/h (1 Bft) 97,87 %
10.09.2018 09:42 16,8 C 17,8 C 16,1 C 89 % 1019,3 hPa 0,0 l/m 2 min 0 min 215 W/m 2,3 km/h (1 Bft) 97,87 %
10.09.2018 09:44 16,9 C 17,8 C 16,1 C 89 % 1019,3 hPa 0,0 l/m 2 min 0 min 207 W/m 2,3 km/h (1 Bft) 95,74 %
10.09.2018 09:46 16,9 C 17,8 C 16,1 C 89 % 1019,3 hPa 0,0 l/m 0 min 0 min 192 W/m 2,3 km/h (1 Bft) 97,87 %
10.09.2018 09:48 16,9 C 17,8 C 16,1 C 89 % 1019,3 hPa 0,0 l/m 0 min 0 min 186 W/m 4,5 km/h (1 Bft) 95,74 %
10.09.2018 09:50 17,0 C 17,2 C 16,1 C 89 % 1019,3 hPa 0,0 l/m 0 min 0 min 183 W/m 4,5 km/h (1 Bft) 97,83 %
10.09.2018 09:52 17,1 C 17,2 C 16,1 C 89 % 1019,3 hPa 0,0 l/m 0 min 0 min 186 W/m 4,5 km/h (1 Bft) 97,87 %
10.09.2018 09:54 17,1 C 17,8 C 16,1 C 89 % 1019,3 hPa 0,0 l/m 0 min 0 min 186 W/m 2,3 km/h (1 Bft) 97,87 %
10.09.2018 09:56 17,1 C 17,2 C 16,1 C 88 % 1019,2 hPa 0,0 l/m 0 min 0 min 180 W/m 2,3 km/h (1 Bft) 95,74 %
10.09.2018 09:58 17,2 C 17,8 C 16,1 C 88 % 1019,4 hPa 0,0 l/m 0 min 0 min 174 W/m 2,3 km/h (1 Bft) 97,87 %
10.09.2018 10:00 17,2 C 17,8 C 16,1 C 88 % 1019,5 hPa 0,0 l/m 0 min 0 min 173 W/m 2,3 km/h (1 Bft) 97,87 %
10.09.2018 10:02 17,2 C 17,8 C 16,1 C 88 % 1019,5 hPa 0,0 l/m 0 min 0 min 176 W/m 0,0 km/h (0 Bft) 95,65 %
10.09.2018 10:04 17,3 C 17,8 C 16,7 C 88 % 1019,5 hPa 0,0 l/m 0 min 0 min 184 W/m 4,5 km/h (1 Bft) 97,87 %
10.09.2018 10:08 17,3 C 17,8 C 16,7 C 88 % 1019,4 hPa 0,0 l/m 0 min 0 min 182 W/m 4,5 km/h (1 Bft) 96,84 %
10.09.2018 10:10 17,4 C 17,8 C 16,7 C 88 % 1019,5 hPa 0,0 l/m 0 min 0 min 181 W/m 2,3 km/h (1 Bft) 95,74 %
10.09.2018 10:12 17,4 C 18,3 C 16,7 C 88 % 1019,6 hPa 0,0 l/m 0 min 0 min 188 W/m 2,3 km/h (1 Bft) 97,83 %
10.09.2018 10:14 17,4 C 18,3 C 16,7 C 88 % 1019,5 hPa 0,0 l/m 0 min 0 min 211 W/m 2,3 km/h (1 Bft) 97,87 %
10.09.2018 10:16 17,4 C 18,9 C 16,7 C 88 % 1019,5 hPa 0,0 l/m 2 min 0 min 269 W/m 4,5 km/h (1 Bft) 95,74 %
10.09.2018 10:18 17,5 C 18,9 C 16,7 C 88 % 1019,5 hPa 0,0 l/m 2 min 0 min 359 W/m 2,3 km/h (1 Bft) 97,87 %
10.09.2018 10:20 17,6 C 20,0 C 16,7 C 88 % 1019,5 hPa 0,0 l/m 2 min 0 min 437 W/m 4,5 km/h (1 Bft) 97,87 %
10.09.2018 10:22 17,7 C 20,6 C 16,7 C 88 % 1019,4 hPa 0,0 l/m 2 min 0 min 383 W/m 2,3 km/h (1 Bft) 97,87 %
10.09.2018 10:24 17,7 C 20,6 C 17,2 C 88 % 1019,4 hPa 0,0 l/m 2 min 0 min 330 W/m 6,8 km/h (2 Bft) 100,00 %
10.09.2018 10:26 17,8 C 20,0 C 17,2 C 88 % 1019,6 hPa 0,0 l/m 2 min 0 min 345 W/m 6,8 km/h (2 Bft) 97,87 %
10.09.2018 10:28 17,8 C 20,0 C 17,2 C 88 % 1019,5 hPa 0,0 l/m 2 min 0 min 350 W/m 6,8 km/h (2 Bft) 100,00 %
10.09.2018 10:30 17,9 C 20,0 C 17,2 C 87 % 1019,6 hPa 0,0 l/m 2 min 0 min 320 W/m 2,3 km/h (1 Bft) 100,00 %
10.09.2018 10:32 18,0 C 20,0 C 17,2 C 87 % 1019,7 hPa 0,0 l/m 2 min 0 min 276 W/m 4,5 km/h (1 Bft) 100,00 %
10.09.2018 10:34 18,1 C 19,4 C 17,2 C 88 % 1019,7 hPa 0,0 l/m 2 min 0 min 274 W/m 4,5 km/h (1 Bft) 100,00 %
10.09.2018 10:36 18,1 C 19,4 C 17,2 C 87 % 1019,7 hPa 0,0 l/m 2 min 0 min 272 W/m 2,3 km/h (1 Bft) 95,65 %
10.09.2018 10:38 18,2 C 19,4 C 17,2 C 87 % 1019,7 hPa 0,0 l/m 2 min 0 min 268 W/m 0,0 km/h (0 Bft) 100,00 %
10.09.2018 10:40 18,2 C 19,4 C 17,2 C 87 % 1019,7 hPa 0,0 l/m 2 min 0 min 266 W/m 2,3 km/h (1 Bft) 100,00 %
10.09.2018 10:42 18,3 C 19,4 C 17,2 C 87 % 1019,7 hPa 0,0 l/m 0 min 0 min 254 W/m 6,8 km/h (2 Bft) 97,87 %
10.09.2018 10:44 18,4 C 19,4 C 17,2 C 87 % 1019,7 hPa 0,0 l/m 0 min 0 min 238 W/m 0,0 km/h (0 Bft) 100,00 %
10.09.2018 10:46 18,4 C 18,9 C 17,2 C 87 % 1019,7 hPa 0,0 l/m 0 min 0 min 240 W/m 4,5 km/h (1 Bft) 100,00 %
10.09.2018 10:48 18,4 C 18,9 C 17,2 C 87 % 1019,8 hPa 0,0 l/m 0 min 0 min 238 W/m 2,3 km/h (1 Bft) 100,00 %
10.09.2018 10:50 18,5 C 19,4 C 17,8 C 86 % 1019,7 hPa 0,0 l/m 0 min 0 min 229 W/m 0,0 km/h (0 Bft) 100,00 %
10.09.2018 10:52 18,5 C 19,4 C 17,2 C 86 % 1019,8 hPa 0,0 l/m 0 min 0 min 228 W/m 2,3 km/h (1 Bft) 100,00 %
10.09.2018 10:54 18,6 C 19,4 C 17,2 C 86 % 1019,8 hPa 0,0 l/m 0 min 0 min 224 W/m 4,5 km/h (1 Bft) 100,00 %
10.09.2018 10:56 18,6 C 19,4 C 17,2 C 86 % 1019,8 hPa 0,0 l/m 0 min 0 min 234 W/m 2,3 km/h (1 Bft) 100,00 %
10.09.2018 10:58 18,6 C 20,0 C 17,2 C 86 % 1019,7 hPa 0,0 l/m 0 min 0 min 264 W/m 2,3 km/h (1 Bft) 100,00 %
10.09.2018 11:00 18,7 C 20,6 C 17,8 C 86 % 1019,6 hPa 0,0 l/m 2 min 0 min 324 W/m 2,3 km/h (1 Bft) 100,00 %
10.09.2018 11:02 18,7 C 22,8 C 17,8 C 86 % 1019,7 hPa 0,0 l/m 2 min 0 min 396 W/m 4,5 km/h (1 Bft) 100,00 %
10.09.2018 11:04 18,8 C 23,3 C 17,8 C 86 % 1019,7 hPa 0,0 l/m 2 min 0 min 433 W/m 4,5 km/h (1 Bft) 100,00 %
10.09.2018 11:06 18,8 C 23,9 C 17,8 C 86 % 1019,8 hPa 0,0 l/m 2 min 0 min 441 W/m 2,3 km/h (1 Bft) 100,00 %
10.09.2018 11:08 18,9 C 24,4 C 17,8 C 85 % 1019,8 hPa 0,0 l/m 2 min 0 min 513 W/m 2,3 km/h (1 Bft) 100,00 %
10.09.2018 11:10 19,1 C 25,6 C 18,3 C 85 % 1019,8 hPa 0,0 l/m 2 min 0 min 490 W/m 4,5 km/h (1 Bft) 100,00 %
10.09.2018 11:12 19,2 C 24,4 C 18,3 C 85 % 1019,7 hPa 0,0 l/m 2 min 0 min 486 W/m 6,8 km/h (2 Bft) 100,00 %
10.09.2018 11:14 19,3 C 23,3 C 17,8 C 84 % 1019,7 hPa 0,0 l/m 2 min 0 min 330 W/m 4,5 km/h (1 Bft) 100,00 %
10.09.2018 11:16 19,3 C 22,8 C 17,8 C 84 % 1019,8 hPa 0,0 l/m 0 min 0 min 266 W/m 0,0 km/h (0 Bft) 100,00 %
10.09.2018 11:18 19,4 C 22,2 C 17,8 C 83 % 1019,8 hPa 0,0 l/m 0 min 0 min 234 W/m 6,8 km/h (2 Bft) 97,87 %
10.09.2018 11:20 19,5 C 21,7 C 17,8 C 83 % 1019,8 hPa 0,0 l/m 0 min 0 min 240 W/m 6,8 km/h (2 Bft) 97,87 %
10.09.2018 11:22 19,6 C 21,7 C 17,8 C 83 % 1019,8 hPa 0,0 l/m 2 min 0 min 291 W/m 4,5 km/h (1 Bft) 97,83 %
10.09.2018 11:24 19,6 C 21,7 C 18,3 C 83 % 1019,8 hPa 0,0 l/m 2 min 0 min 359 W/m 9,0 km/h (2 Bft) 95,74 %
10.09.2018 11:26 19,7 C 23,3 C 18,3 C 82 % 1019,9 hPa 0,0 l/m 2 min 0 min 414 W/m 2,3 km/h (1 Bft) 95,74 %
10.09.2018 11:28 19,7 C 23,3 C 18,3 C 82 % 1019,9 hPa 0,0 l/m 2 min 0 min 377 W/m 6,8 km/h (2 Bft) 97,87 %
10.09.2018 11:30 19,8 C 25,0 C 18,3 C 82 % 1019,8 hPa 0,0 l/m 2 min 0 min 430 W/m 2,3 km/h (1 Bft) 97,87 %
10.09.2018 11:32 19,9 C 25,6 C 18,3 C 82 % 1019,8 hPa 0,0 l/m 2 min 0 min 551 W/m 4,5 km/h (1 Bft) 97,87 %
10.09.2018 11:34 20,0 C 26,1 C 18,9 C 82 % 1019,8 hPa 0,0 l/m 2 min 0 min 593 W/m 4,5 km/h (1 Bft) 95,65 %
10.09.2018 11:36 20,1 C 25,6 C 18,9 C 81 % 1019,8 hPa 0,0 l/m 2 min 0 min 559 W/m 4,5 km/h (1 Bft) 95,74 %
10.09.2018 11:38 20,2 C 25,0 C 18,9 C 81 % 1019,8 hPa 0,0 l/m 2 min 0 min 610 W/m 4,5 km/h (1 Bft) 95,74 %
10.09.2018 11:40 20,4 C 25,0 C 18,9 C 81 % 1019,8 hPa 0,0 l/m 2 min 0 min 420 W/m 4,5 km/h (1 Bft) 93,62 %
10.09.2018 11:42 20,5 C 24,4 C 18,9 C 80 % 1019,8 hPa 0,0 l/m 2 min 0 min 368 W/m 2,3 km/h (1 Bft) 93,62 %
10.09.2018 11:44 20,6 C 24,4 C 18,9 C 80 % 1019,8 hPa 0,0 l/m 2 min 0 min 395 W/m 4,5 km/h (1 Bft) 97,87 %
10.09.2018 11:46 20,7 C 23,3 C 18,9 C 79 % 1019,8 hPa 0,0 l/m 2 min 0 min 377 W/m 4,5 km/h (1 Bft) 97,83 %
10.09.2018 11:48 20,7 C 22,8 C 18,9 C 78 % 1019,8 hPa 0,0 l/m 2 min 0 min 362 W/m 2,3 km/h (1 Bft) 97,87 %
10.09.2018 11:50 20,8 C 22,2 C 18,9 C 78 % 1019,8 hPa 0,0 l/m 2 min 0 min 355 W/m 2,3 km/h (1 Bft) 97,87 %
10.09.2018 11:52 20,9 C 22,8 C 18,9 C 77 % 1019,7 hPa 0,0 l/m 2 min 0 min 358 W/m 2,3 km/h (1 Bft) 93,75 %
10.09.2018 11:54 20,9 C 22,2 C 18,9 C 77 % 1019,7 hPa 0,0 l/m 2 min 0 min 349 W/m 4,5 km/h (1 Bft) 95,74 %
10.09.2018 11:56 21,0 C 22,2 C 18,9 C 77 % 1019,7 hPa 0,0 l/m 2 min 0 min 352 W/m 0,0 km/h (0 Bft) 93,62 %
10.09.2018 11:58 21,0 C 22,8 C 19,4 C 77 % 1019,7 hPa 0,0 l/m 2 min 0 min 351 W/m 2,3 km/h (1 Bft) 93,48 %
10.09.2018 12:00 21,1 C 22,8 C 19,4 C 77 % 1019,7 hPa 0,0 l/m 2 min 0 min 341 W/m 4,5 km/h (1 Bft) 97,87 %
10.09.2018 12:02 21,1 C 23,3 C 19,4 C 77 % 1019,8 hPa 0,0 l/m 2 min 0 min 346 W/m 6,8 km/h (2 Bft) 97,87 %
10.09.2018 12:04 21,2 C 24,4 C 19,4 C 77 % 1019,8 hPa 0,0 l/m 2 min 0 min 358 W/m 6,8 km/h (2 Bft) 97,87 %
10.09.2018 12:06 21,2 C 23,9 C 19,4 C 77 % 1019,8 hPa 0,0 l/m 2 min 0 min 353 W/m 6,8 km/h (2 Bft) 95,74 %
10.09.2018 12:08 21,3 C 24,4 C 19,4 C 76 % 1019,8 hPa 0,0 l/m 2 min 0 min 377 W/m 6,8 km/h (2 Bft) 93,62 %
10.09.2018 12:10 21,3 C 25,0 C 19,4 C 75 % 1019,9 hPa 0,0 l/m 2 min 0 min 413 W/m 4,5 km/h (1 Bft) 97,83 %
10.09.2018 12:12 21,4 C 24,4 C 19,4 C 75 % 1019,9 hPa 0,0 l/m 2 min 0 min 414 W/m 4,5 km/h (1 Bft) 97,87 %
10.09.2018 12:14 21,4 C 24,4 C 20,0 C 74 % 1019,9 hPa 0,0 l/m 2 min 0 min 408 W/m 9,0 km/h (2 Bft) 95,74 %
10.09.2018 12:16 21,5 C 25,6 C 20,0 C 74 % 1019,9 hPa 0,0 l/m 2 min 0 min 395 W/m 4,5 km/h (1 Bft) 97,87 %
10.09.2018 12:18 21,6 C 25,0 C 20,0 C 74 % 1019,9 hPa 0,0 l/m 2 min 0 min 377 W/m 6,8 km/h (2 Bft) 97,87 %
10.09.2018 12:20 21,6 C 23,9 C 20,0 C 74 % 1019,9 hPa 0,0 l/m 2 min 0 min 374 W/m 4,5 km/h (1 Bft) 97,83 %
10.09.2018 12:22 21,7 C 24,4 C 20,0 C 73 % 1019,9 hPa 0,0 l/m 2 min 0 min 415 W/m 2,3 km/h (1 Bft) 95,74 %
10.09.2018 12:24 21,7 C 24,4 C 20,0 C 73 % 1019,9 hPa 0,0 l/m 2 min 0 min 401 W/m 9,0 km/h (2 Bft) 97,87 %
10.09.2018 12:26 21,8 C 23,3 C 19,4 C 72 % 1019,9 hPa 0,0 l/m 2 min 0 min 370 W/m 6,8 km/h (2 Bft) 97,87 %
10.09.2018 12:28 21,8 C 23,3 C 19,4 C 72 % 1019,9 hPa 0,0 l/m 2 min 0 min 344 W/m 6,8 km/h (2 Bft) 97,87 %
10.09.2018 12:30 21,8 C 22,8 C 19,4 C 72 % 1019,9 hPa 0,0 l/m 0 min 0 min 315 W/m 4,5 km/h (1 Bft) 95,74 %
10.09.2018 12:32 21,8 C 22,2 C 19,4 C 72 % 1019,9 hPa 0,0 l/m 0 min 0 min 312 W/m 4,5 km/h (1 Bft) 95,65 %
10.09.2018 12:34 21,8 C 22,2 C 19,4 C 71 % 1019,9 hPa 0,0 l/m 0 min 0 min 310 W/m 2,3 km/h (1 Bft) 95,74 %
10.09.2018 12:36 21,8 C 22,8 C 19,4 C 70 % 1019,9 hPa 0,0 l/m 0 min 0 min 288 W/m 4,5 km/h (1 Bft) 93,62 %
10.09.2018 12:38 21,8 C 22,8 C 19,4 C 70 % 1019,9 hPa 0,0 l/m 0 min 0 min 264 W/m 2,3 km/h (1 Bft) 93,62 %
10.09.2018 12:40 21,8 C 22,2 C 19,4 C 71 % 1019,9 hPa 0,0 l/m 0 min 0 min 251 W/m 6,8 km/h (2 Bft) 95,74 %
10.09.2018 12:42 21,8 C 21,7 C 19,4 C 71 % 1020,0 hPa 0,0 l/m 0 min 0 min 258 W/m 4,5 km/h (1 Bft) 95,74 %
10.09.2018 12:44 21,8 C 21,7 C 19,4 C 70 % 1020,0 hPa 0,0 l/m 0 min 0 min 275 W/m 4,5 km/h (1 Bft) 95,65 %
10.09.2018 12:46 21,8 C 21,1 C 19,4 C 69 % 1020,0 hPa 0,0 l/m 0 min 0 min 305 W/m 6,8 km/h (2 Bft) 93,62 %
10.09.2018 12:48 21,8 C 21,7 C 19,4 C 68 % 1019,9 hPa 0,0 l/m 2 min 0 min 356 W/m 4,5 km/h (1 Bft) 95,74 %
10.09.2018 12:50 21,8 C 22,2 C 19,4 C 69 % 1019,9 hPa 0,0 l/m 2 min 0 min 358 W/m 2,3 km/h (1 Bft) 95,74 %
10.09.2018 12:52 21,8 C 23,3 C 20,0 C 69 % 1019,9 hPa 0,0 l/m 2 min 0 min 405 W/m 6,8 km/h (2 Bft) 95,74 %
10.09.2018 12:54 21,8 C 23,9 C 20,0 C 70 % 1019,9 hPa 0,0 l/m 2 min 0 min 495 W/m 4,5 km/h (1 Bft) 95,74 %
10.09.2018 12:56 21,8 C 24,4 C 20,0 C 70 % 1020,0 hPa 0,0 l/m 2 min 0 min 461 W/m 9,0 km/h (2 Bft) 93,48 %
10.09.2018 12:58 21,8 C 23,3 C 20,0 C 70 % 1020,0 hPa 0,0 l/m 2 min 0 min 412 W/m 6,8 km/h (2 Bft) 97,87 %
10.09.2018 13:00 21,9 C 23,3 C 20,0 C 69 % 1020,0 hPa 0,0 l/m 2 min 0 min 376 W/m 4,5 km/h (1 Bft) 97,87 %
10.09.2018 13:02 21,9 C 23,3 C 20,0 C 70 % 1019,9 hPa 0,0 l/m 2 min 0 min 345 W/m 4,5 km/h (1 Bft) 97,87 %
10.09.2018 13:04 21,9 C 22,8 C 20,0 C 70 % 1019,9 hPa 0,0 l/m 0 min 0 min 325 W/m 4,5 km/h (1 Bft) 97,87 %
10.09.2018 13:06 22,0 C 22,8 C 20,0 C 69 % 1019,9 hPa 0,0 l/m 0 min 0 min 308 W/m 6,8 km/h (2 Bft) 97,87 %
10.09.2018 13:08 22,0 C 22,2 C 20,0 C 69 % 1019,9 hPa 0,0 l/m 0 min 0 min 312 W/m 4,5 km/h (1 Bft) 97,83 %
10.09.2018 13:10 22,0 C 22,2 C 20,0 C 69 % 1019,8 hPa 0,0 l/m 0 min 0 min 308 W/m 4,5 km/h (1 Bft) 97,87 %
10.09.2018 13:12 22,0 C 22,2 C 20,0 C 69 % 1019,9 hPa 0,0 l/m 0 min 0 min 287 W/m 4,5 km/h (1 Bft) 97,87 %
10.09.2018 13:14 22,0 C 22,2 C 20,0 C 69 % 1019,9 hPa 0,0 l/m 0 min 0 min 283 W/m 6,8 km/h (2 Bft) 97,87 %
10.09.2018 13:16 22,0 C 21,7 C 20,0 C 69 % 1019,9 hPa 0,0 l/m 0 min 0 min 281 W/m 2,3 km/h (1 Bft) 97,87 %
10.09.2018 13:18 21,9 C 21,7 C 20,0 C 68 % 1019,9 hPa 0,0 l/m 0 min 0 min 284 W/m 2,3 km/h (1 Bft) 97,87 %
10.09.2018 13:20 21,9 C 21,7 C 20,0 C 68 % 1019,9 hPa 0,0 l/m 0 min 0 min 289 W/m 6,8 km/h (2 Bft) 100,00 %
10.09.2018 13:22 21,9 C 21,7 C 20,0 C 68 % 1019,9 hPa 0,0 l/m 0 min 0 min 298 W/m 2,3 km/h (1 Bft) 95,74 %
10.09.2018 13:24 21,9 C 22,2 C 20,0 C 69 % 1019,9 hPa 0,0 l/m 0 min 0 min 307 W/m 4,5 km/h (1 Bft) 97,87 %
10.09.2018 13:26 21,9 C 22,2 C 20,0 C 68 % 1019,9 hPa 0,0 l/m 0 min 0 min 327 W/m 4,5 km/h (1 Bft) 100,00 %
10.09.2018 13:28 21,9 C 22,8 C 20,0 C 69 % 1019,9 hPa 0,0 l/m 2 min 0 min 359 W/m 2,3 km/h (1 Bft) 100,00 %
10.09.2018 13:30 21,9 C 22,8 C 20,0 C 70 % 1019,9 hPa 0,0 l/m 2 min 0 min 388 W/m 4,5 km/h (1 Bft) 100,00 %
10.09.2018 13:32 21,9 C 23,3 C 20,0 C 70 % 1019,9 hPa 0,0 l/m 2 min 0 min 437 W/m 2,3 km/h (1 Bft) 97,87 %
10.09.2018 13:34 21,9 C 23,3 C 20,0 C 70 % 1019,9 hPa 0,0 l/m 2 min 0 min 403 W/m 4,5 km/h (1 Bft) 100,00 %
10.09.2018 13:36 22,0 C 23,3 C 20,0 C 70 % 1019,9 hPa 0,0 l/m 2 min 0 min 379 W/m 4,5 km/h (1 Bft) 100,00 %
10.09.2018 13:38 22,0 C 23,3 C 20,6 C 70 % 1019,9 hPa 0,0 l/m 2 min 0 min 390 W/m 4,5 km/h (1 Bft) 100,00 %
10.09.2018 13:40 22,1 C 22,8 C 20,6 C 70 % 1019,9 hPa 0,0 l/m 2 min 0 min 458 W/m 6,8 km/h (2 Bft) 98,33 %
10.09.2018 13:42 22,1 C 22,8 C 20,6 C 69 % 1020,0 hPa 0,0 l/m 2 min 0 min 474 W/m 4,5 km/h (1 Bft) 100,00 %
10.09.2018 13:44 22,1 C 22,8 C 20,6 C 69 % 1019,9 hPa 0,0 l/m 2 min 0 min 426 W/m 4,5 km/h (1 Bft) 100,00 %
10.09.2018 13:46 22,2 C 23,3 C 20,6 C 69 % 1019,9 hPa 0,0 l/m 2 min 0 min 385 W/m 4,5 km/h (1 Bft) 97,87 %
10.09.2018 13:48 22,2 C 23,3 C 20,6 C 69 % 1019,9 hPa 0,0 l/m 2 min 0 min 388 W/m 4,5 km/h (1 Bft) 95,65 %
10.09.2018 13:50 22,2 C 22,8 C 20,6 C 69 % 1019,8 hPa 0,0 l/m 2 min 0 min 416 W/m 9,0 km/h (2 Bft) 97,87 %
10.09.2018 13:52 22,2 C 23,3 C 20,6 C 68 % 1019,9 hPa 0,0 l/m 2 min 0 min 462 W/m 6,8 km/h (2 Bft) 97,87 %
10.09.2018 13:54 22,3 C 23,3 C 20,6 C 68 % 1019,9 hPa 0,0 l/m 2 min 0 min 487 W/m 4,5 km/h (1 Bft) 97,87 %
10.09.2018 13:56 22,3 C 22,8 C 20,6 C 69 % 1019,9 hPa 0,0 l/m 0 min 0 min 307 W/m 9,0 km/h (2 Bft) 97,87 %
10.09.2018 13:58 22,3 C 22,8 C 20,6 C 68 % 1019,9 hPa 0,0 l/m 0 min 0 min 308 W/m 2,3 km/h (1 Bft) 95,74 %
10.09.2018 14:00 22,3 C 22,8 C 20,6 C 67 % 1019,9 hPa 0,0 l/m 0 min 0 min 308 W/m 6,8 km/h (2 Bft) 97,83 %
10.09.2018 14:02 22,3 C 22,2 C 20,6 C 67 % 1019,9 hPa 0,0 l/m 0 min 0 min 290 W/m 9,0 km/h (2 Bft) 97,87 %
10.09.2018 14:04 22,3 C 22,2 C 20,6 C 67 % 1020,0 hPa 0,0 l/m 0 min 0 min 267 W/m 6,8 km/h (2 Bft) 97,87 %
10.09.2018 14:06 22,3 C 22,2 C 20,6 C 66 % 1020,0 hPa 0,0 l/m 0 min 0 min 264 W/m 4,5 km/h (1 Bft) 97,87 %
10.09.2018 14:08 22,3 C 22,2 C 20,0 C 66 % 1020,0 hPa 0,0 l/m 0 min 0 min 278 W/m 6,8 km/h (2 Bft) 97,87 %
10.09.2018 14:10 22,3 C 22,2 C 20,0 C 65 % 1020,0 hPa 0,0 l/m 0 min 0 min 294 W/m 4,5 km/h (1 Bft) 97,87 %
10.09.2018 14:12 22,3 C 22,2 C 20,0 C 66 % 1020,0 hPa 0,0 l/m 0 min 0 min 304 W/m 4,5 km/h (1 Bft) 97,83 %
10.09.2018 14:14 22,2 C 22,2 C 20,0 C 65 % 1020,1 hPa 0,0 l/m 0 min 0 min 308 W/m 4,5 km/h (1 Bft) 97,87 %
10.09.2018 14:16 22,2 C 22,2 C 20,0 C 66 % 1020,0 hPa 0,0 l/m 0 min 0 min 290 W/m 9,0 km/h (2 Bft) 95,74 %
10.09.2018 14:18 22,2 C 21,7 C 20,0 C 65 % 1020,0 hPa 0,0 l/m 0 min 0 min 272 W/m 4,5 km/h (1 Bft) 97,87 %
10.09.2018 14:20 22,2 C 21,7 C 20,0 C 65 % 1020,0 hPa 0,0 l/m 0 min 0 min 265 W/m 11,3 km/h (2 Bft) 97,87 %
10.09.2018 14:22 22,1 C 21,7 C 20,0 C 66 % 1020,1 hPa 0,0 l/m 0 min 0 min 268 W/m 4,5 km/h (1 Bft) 97,83 %
10.09.2018 14:24 22,1 C 21,7 C 20,0 C 67 % 1020,0 hPa 0,0 l/m 0 min 0 min 276 W/m 6,8 km/h (2 Bft) 97,87 %
10.09.2018 14:26 22,1 C 21,7 C 20,0 C 66 % 1020,0 hPa 0,0 l/m 0 min 0 min 281 W/m 4,5 km/h (1 Bft) 97,87 %
10.09.2018 14:28 22,1 C 21,7 C 20,0 C 66 % 1020,0 hPa 0,0 l/m 0 min 0 min 288 W/m 6,8 km/h (2 Bft) 97,87 %
10.09.2018 14:30 22,0 C 21,7 C 20,0 C 66 % 1020,1 hPa 0,0 l/m 0 min 0 min 301 W/m 4,5 km/h (1 Bft) 100,00 %
10.09.2018 14:32 22,0 C 21,7 C 20,0 C 66 % 1020,1 hPa 0,0 l/m 0 min 0 min 303 W/m 4,5 km/h (1 Bft) 97,87 %
10.09.2018 14:34 22,0 C 22,2 C 20,0 C 67 % 1020,1 hPa 0,0 l/m 0 min 0 min 307 W/m 4,5 km/h (1 Bft) 100,00 %
10.09.2018 14:36 22,0 C 22,2 C 20,6 C 67 % 1020,1 hPa 0,0 l/m 0 min 0 min 303 W/m 11,3 km/h (2 Bft) 100,00 %
10.09.2018 14:38 21,9 C 21,7 C 20,0 C 67 % 1020,1 hPa 0,0 l/m 0 min 0 min 296 W/m 6,8 km/h (2 Bft) 100,00 %
10.09.2018 14:40 21,9 C 21,7 C 20,0 C 67 % 1020,1 hPa 0,0 l/m 0 min 0 min 294 W/m 6,8 km/h (2 Bft) 97,87 %
10.09.2018 14:42 21,9 C 21,7 C 20,0 C 67 % 1020,2 hPa 0,0 l/m 0 min 0 min 301 W/m 6,8 km/h (2 Bft) 97,87 %
10.09.2018 14:44 21,9 C 21,7 C 20,0 C 67 % 1020,2 hPa 0,0 l/m 0 min 0 min 296 W/m 4,5 km/h (1 Bft) 100,00 %
10.09.2018 14:46 21,9 C 21,7 C 20,0 C 68 % 1020,2 hPa 0,0 l/m 0 min 0 min 308 W/m 4,5 km/h (1 Bft) 100,00 %
10.09.2018 14:48 21,9 C 22,2 C 20,0 C 68 % 1020,2 hPa 0,0 l/m 2 min 0 min 330 W/m 6,8 km/h (2 Bft) 100,00 %
10.09.2018 14:50 21,9 C 22,2 C 20,6 C 68 % 1020,1 hPa 0,0 l/m 0 min 0 min 305 W/m 6,8 km/h (2 Bft) 100,00 %
10.09.2018 14:52 21,9 C 22,2 C 20,6 C 68 % 1020,1 hPa 0,0 l/m 0 min 0 min 264 W/m 4,5 km/h (1 Bft) 100,00 %
10.09.2018 14:54 21,9 C 22,2 C 20,6 C 69 % 1020,1 hPa 0,0 l/m 0 min 0 min 236 W/m 4,5 km/h (1 Bft) 100,00 %
10.09.2018 14:56 21,9 C 21,7 C 20,6 C 68 % 1020,1 hPa 0,0 l/m 0 min 0 min 215 W/m 4,5 km/h (1 Bft) 100,00 %
10.09.2018 14:58 21,9 C 21,7 C 20,0 C 68 % 1020,1 hPa 0,0 l/m 0 min 0 min 201 W/m 6,8 km/h (2 Bft) 100,00 %
10.09.2018 15:00 21,9 C 21,7 C 20,0 C 68 % 1020,1 hPa 0,0 l/m 0 min 0 min 201 W/m 4,5 km/h (1 Bft) 100,00 %
10.09.2018 15:02 21,9 C 21,7 C 20,0 C 68 % 1020,0 hPa 0,0 l/m 0 min 0 min 215 W/m 6,8 km/h (2 Bft) 100,00 %
10.09.2018 15:04 21,9 C 21,1 C 20,0 C 68 % 1020,0 hPa 0,0 l/m 0 min 0 min 239 W/m 4,5 km/h (1 Bft) 97,87 %
10.09.2018 15:06 21,9 C 21,1 C 20,0 C 68 % 1019,9 hPa 0,0 l/m 0 min 0 min 260 W/m 9,0 km/h (2 Bft) 95,74 %
10.09.2018 15:08 21,8 C 21,7 C 20,0 C 68 % 1020,0 hPa 0,0 l/m 0 min 0 min 289 W/m 4,5 km/h (1 Bft) 97,87 %
10.09.2018 15:10 21,9 C 21,7 C 20,0 C 68 % 1019,9 hPa 0,0 l/m 0 min 0 min 302 W/m 2,3 km/h (1 Bft) 97,83 %
10.09.2018 15:12 21,9 C 21,7 C 20,0 C 69 % 1019,9 hPa 0,0 l/m 0 min 0 min 307 W/m 4,5 km/h (1 Bft) 100,00 %
10.09.2018 15:14 21,9 C 22,2 C 20,6 C 68 % 1019,9 hPa 0,0 l/m 2 min 0 min 327 W/m 4,5 km/h (1 Bft) 100,00 %
10.09.2018 15:16 21,9 C 22,2 C 20,6 C 68 % 1019,9 hPa 0,0 l/m 2 min 0 min 359 W/m 6,8 km/h (2 Bft) 95,74 %
10.09.2018 15:18 21,9 C 22,2 C 20,6 C 67 % 1020,0 hPa 0,0 l/m 2 min 0 min 376 W/m 4,5 km/h (1 Bft) 97,87 %
10.09.2018 15:20 21,9 C 22,2 C 20,6 C 67 % 1020,1 hPa 0,0 l/m 2 min 0 min 356 W/m 4,5 km/h (1 Bft) 97,83 %
10.09.2018 15:22 21,9 C 22,2 C 20,6 C 68 % 1020,0 hPa 0,0 l/m 2 min 0 min 362 W/m 9,0 km/h (2 Bft) 100,00 %
10.09.2018 15:24 21,9 C 22,2 C 20,6 C 67 % 1020,1 hPa 0,0 l/m 2 min 0 min 370 W/m 9,0 km/h (2 Bft) 97,87 %
10.09.2018 15:26 21,9 C 22,2 C 20,6 C 67 % 1020,1 hPa 0,0 l/m 2 min 0 min 350 W/m 4,5 km/h (1 Bft) 97,87 %
10.09.2018 15:28 21,9 C 22,2 C 20,6 C 67 % 1020,0 hPa 0,0 l/m 2 min 0 min 312 W/m 6,8 km/h (2 Bft) 97,87 %
10.09.2018 15:30 21,9 C 22,2 C 20,6 C 67 % 1020,1 hPa 0,0 l/m 2 min 0 min 336 W/m 6,8 km/h (2 Bft) 97,87 %
10.09.2018 15:32 22,0 C 22,2 C 20,6 C 67 % 1020,0 hPa 0,0 l/m 2 min 0 min 334 W/m 9,0 km/h (2 Bft) 95,74 %
10.09.2018 15:34 22,0 C 21,7 C 20,6 C 66 % 1020,0 hPa 0,0 l/m 2 min 0 min 336 W/m 11,3 km/h (2 Bft) 95,65 %
10.09.2018 15:36 22,0 C 22,2 C 20,6 C 66 % 1020,0 hPa 0,0 l/m 2 min 0 min 349 W/m 6,8 km/h (2 Bft) 93,62 %
10.09.2018 15:38 22,0 C 22,2 C 20,6 C 66 % 1020,0 hPa 0,0 l/m 2 min 0 min 337 W/m 9,0 km/h (2 Bft) 95,74 %
10.09.2018 15:40 22,0 C 22,2 C 20,6 C 67 % 1020,0 hPa 0,0 l/m 2 min 0 min 338 W/m 4,5 km/h (1 Bft) 95,74 %
10.09.2018 15:42 22,0 C 22,2 C 20,6 C 67 % 1019,9 hPa 0,0 l/m 2 min 0 min 335 W/m 4,5 km/h (1 Bft) 95,74 %
10.09.2018 15:44 22,0 C 22,2 C 20,6 C 67 % 1020,0 hPa 0,0 l/m 2 min 0 min 317 W/m 2,3 km/h (1 Bft) 95,65 %
10.09.2018 15:46 22,1 C 22,2 C 20,6 C 67 % 1020,1 hPa 0,0 l/m 0 min 0 min 273 W/m 6,8 km/h (2 Bft) 95,74 %
10.09.2018 15:48 22,1 C 22,2 C 20,6 C 66 % 1020,1 hPa 0,0 l/m 0 min 0 min 264 W/m 6,8 km/h (2 Bft) 95,74 %
10.09.2018 15:50 22,1 C 21,7 C 20,6 C 65 % 1020,0 hPa 0,0 l/m 0 min 0 min 257 W/m 9,0 km/h (2 Bft) 95,74 %
10.09.2018 15:52 22,1 C 21,7 C 20,6 C 65 % 1020,0 hPa 0,0 l/m 0 min 0 min 247 W/m 6,8 km/h (2 Bft) 95,74 %
10.09.2018 15:54 22,0 C 21,7 C 20,6 C 65 % 1020,0 hPa 0,0 l/m 0 min 0 min 239 W/m 6,8 km/h (2 Bft) 91,49 %
10.09.2018 15:56 22,0 C 21,7 C 20,6 C 65 % 1020,0 hPa 0,0 l/m 0 min 0 min 230 W/m 4,5 km/h (1 Bft) 95,65 %
10.09.2018 15:58 22,0 C 21,7 C 20,6 C 66 % 1020,0 hPa 0,0 l/m 0 min 0 min 214 W/m 11,3 km/h (2 Bft) 95,74 %
10.09.2018 16:00 22,0 C 21,7 C 20,6 C 66 % 1020,0 hPa 0,0 l/m 0 min 0 min 203 W/m 6,8 km/h (2 Bft) 95,74 %
10.09.2018 16:02 22,0 C 21,7 C 20,6 C 65 % 1020,0 hPa 0,0 l/m 0 min 0 min 191 W/m 6,8 km/h (2 Bft) 95,74 %
10.09.2018 16:04 21,9 C 21,1 C 20,0 C 65 % 1020,1 hPa 0,0 l/m 0 min 0 min 179 W/m 6,8 km/h (2 Bft) 95,74 %
10.09.2018 16:06 21,9 C 21,1 C 20,0 C 65 % 1020,0 hPa 0,0 l/m 0 min 0 min 168 W/m 6,8 km/h (2 Bft) 95,74 %
10.09.2018 16:08 21,9 C 21,1 C 20,0 C 65 % 1020,0 hPa 0,0 l/m 0 min 0 min 171 W/m 4,5 km/h (1 Bft) 95,65 %
10.09.2018 16:10 21,9 C 21,1 C 20,0 C 66 % 1019,9 hPa 0,0 l/m 0 min 0 min 175 W/m 6,8 km/h (2 Bft) 95,74 %
10.09.2018 16:12 21,9 C 21,1 C 20,0 C 66 % 1019,9 hPa 0,0 l/m 0 min 0 min 176 W/m 6,8 km/h (2 Bft) 93,62 %
10.09.2018 16:14 21,8 C 21,1 C 20,0 C 66 % 1019,8 hPa 0,0 l/m 0 min 0 min 178 W/m 4,5 km/h (1 Bft) 95,74 %
10.09.2018 16:16 21,8 C 21,1 C 20,0 C 66 % 1019,8 hPa 0,0 l/m 0 min 0 min 185 W/m 4,5 km/h (1 Bft) 95,74 %
10.09.2018 16:18 21,8 C 21,7 C 20,0 C 66 % 1019,9 hPa 0,0 l/m 0 min 0 min 199 W/m 4,5 km/h (1 Bft) 95,74 %
10.09.2018 16:20 21,8 C 21,7 C 20,0 C 66 % 1019,9 hPa 0,0 l/m 0 min 0 min 219 W/m 2,3 km/h (1 Bft) 93,48 %
10.09.2018 16:22 21,8 C 21,7 C 20,0 C 67 % 1019,8 hPa 0,0 l/m 0 min 0 min 241 W/m 2,3 km/h (1 Bft) 95,74 %
10.09.2018 16:24 21,8 C 21,7 C 20,0 C 66 % 1019,8 hPa 0,0 l/m 0 min 0 min 248 W/m 2,3 km/h (1 Bft) 95,74 %
10.09.2018 16:26 21,8 C 22,2 C 20,6 C 67 % 1019,8 hPa 0,0 l/m 0 min 0 min 245 W/m 2,3 km/h (1 Bft) 95,74 %
10.09.2018 16:28 21,8 C 22,2 C 20,6 C 67 % 1019,7 hPa 0,0 l/m 2 min 0 min 265 W/m 2,3 km/h (1 Bft) 97,87 %
10.09.2018 16:30 21,8 C 22,2 C 20,6 C 67 % 1019,8 hPa 0,0 l/m 2 min 0 min 294 W/m 4,5 km/h (1 Bft) 97,87 %
10.09.2018 16:32 21,8 C 22,2 C 20,6 C 66 % 1019,8 hPa 0,0 l/m 2 min 0 min 294 W/m 6,8 km/h (2 Bft) 97,83 %
10.09.2018 16:34 21,9 C 22,2 C 20,6 C 67 % 1019,8 hPa 0,0 l/m 2 min 0 min 303 W/m 6,8 km/h (2 Bft) 93,62 %
10.09.2018 16:36 21,9 C 22,2 C 20,6 C 66 % 1019,8 hPa 0,0 l/m 2 min 0 min 285 W/m 9,0 km/h (2 Bft) 95,74 %
10.09.2018 16:38 21,9 C 22,2 C 20,6 C 66 % 1019,9 hPa 0,0 l/m 2 min 0 min 264 W/m 6,8 km/h (2 Bft) 97,87 %
10.09.2018 16:40 21,9 C 22,2 C 20,6 C 67 % 1020,0 hPa 0,0 l/m 2 min 0 min 262 W/m 6,8 km/h (2 Bft) 93,62 %
10.09.2018 16:42 21,9 C 22,2 C 20,6 C 66 % 1020,0 hPa 0,0 l/m 2 min 0 min 268 W/m 6,8 km/h (2 Bft) 97,87 %
10.09.2018 16:44 21,9 C 22,2 C 20,6 C 66 % 1020,0 hPa 0,0 l/m 2 min 0 min 248 W/m 4,5 km/h (1 Bft) 97,83 %
10.09.2018 16:46 22,0 C 22,2 C 20,6 C 66 % 1020,0 hPa 0,0 l/m 2 min 0 min 252 W/m 4,5 km/h (1 Bft) 93,62 %
10.09.2018 16:48 22,0 C 22,2 C 20,6 C 66 % 1020,0 hPa 0,0 l/m 2 min 0 min 277 W/m 4,5 km/h (1 Bft) 97,87 %
10.09.2018 16:50 22,0 C 22,2 C 20,6 C 66 % 1020,1 hPa 0,0 l/m 2 min 0 min 252 W/m 6,8 km/h (2 Bft) 97,87 %
10.09.2018 16:52 22,0 C 22,2 C 20,6 C 67 % 1020,1 hPa 0,0 l/m 0 min 0 min 217 W/m 6,8 km/h (2 Bft) 95,74 %
10.09.2018 16:54 22,0 C 21,7 C 20,6 C 66 % 1020,1 hPa 0,0 l/m 0 min 0 min 184 W/m 4,5 km/h (1 Bft) 97,83 %
10.09.2018 16:56 22,0 C 21,7 C 20,6 C 66 % 1020,1 hPa 0,0 l/m 0 min 0 min 155 W/m 6,8 km/h (2 Bft) 97,87 %
10.09.2018 16:58 22,0 C 21,1 C 20,6 C 65 % 1020,3 hPa 0,0 l/m 0 min 0 min 138 W/m 9,0 km/h (2 Bft) 97,87 %
10.09.2018 17:00 22,0 C 21,1 C 20,6 C 66 % 1020,1 hPa 0,0 l/m 0 min 0 min 134 W/m 4,5 km/h (1 Bft) 95,74 %
10.09.2018 17:02 22,0 C 21,1 C 20,0 C 66 % 1020,1 hPa 0,0 l/m 0 min 0 min 134 W/m 9,0 km/h (2 Bft) 97,87 %
10.09.2018 17:04 22,0 C 21,1 C 20,0 C 66 % 1020,0 hPa 0,0 l/m 0 min 0 min 129 W/m 4,5 km/h (1 Bft) 95,74 %
10.09.2018 17:06 22,0 C 21,1 C 20,0 C 66 % 1020,0 hPa 0,0 l/m 0 min 0 min 120 W/m 2,3 km/h (1 Bft) 100,00 %
10.09.2018 17:08 21,9 C 21,1 C 20,0 C 66 % 1020,1 hPa 0,0 l/m 0 min 0 min 115 W/m 4,5 km/h (1 Bft) 100,00 %
10.09.2018 17:10 21,9 C 21,1 C 20,0 C 66 % 1020,1 hPa 0,0 l/m 0 min 0 min 117 W/m 4,5 km/h (1 Bft) 100,00 %
10.09.2018 17:12 21,9 C 21,1 C 20,0 C 67 % 1020,1 hPa 0,0 l/m 0 min 0 min 126 W/m 2,3 km/h (1 Bft) 97,78 %
10.09.2018 17:14 21,9 C 21,1 C 20,0 C 67 % 1020,1 hPa 0,0 l/m 0 min 0 min 132 W/m 4,5 km/h (1 Bft) 100,00 %
10.09.2018 17:16 21,9 C 21,1 C 20,0 C 67 % 1020,1 hPa 0,0 l/m 0 min 0 min 136 W/m 2,3 km/h (1 Bft) 97,87 %
10.09.2018 17:18 21,9 C 21,1 C 20,0 C 67 % 1020,1 hPa 0,0 l/m 0 min 0 min 130 W/m 2,3 km/h (1 Bft) 100,00 %
10.09.2018 17:20 21,9 C 21,1 C 20,0 C 67 % 1020,2 hPa 0,0 l/m 0 min 0 min 125 W/m 4,5 km/h (1 Bft) 100,00 %
10.09.2018 17:22 21,8 C 21,1 C 20,0 C 67 % 1020,2 hPa 0,0 l/m 0 min 0 min 133 W/m 4,5 km/h (1 Bft) 100,00 %
10.09.2018 17:24 21,8 C 21,1 C 20,0 C 68 % 1020,2 hPa 0,0 l/m 0 min 0 min 140 W/m 6,8 km/h (2 Bft) 100,00 %
10.09.2018 17:26 21,8 C 21,1 C 20,0 C 68 % 1020,1 hPa 0,0 l/m 0 min 0 min 142 W/m 4,5 km/h (1 Bft) 97,83 %
10.09.2018 17:28 21,8 C 21,1 C 20,0 C 68 % 1020,3 hPa 0,0 l/m 0 min 0 min 137 W/m 4,5 km/h (1 Bft) 97,87 %
10.09.2018 17:30 21,8 C 21,1 C 20,0 C 67 % 1020,2 hPa 0,0 l/m 0 min 0 min 130 W/m 6,8 km/h (2 Bft) 100,00 %
10.09.2018 17:32 21,8 C 21,1 C 20,0 C 67 % 1020,3 hPa 0,0 l/m 0 min 0 min 120 W/m 2,3 km/h (1 Bft) 100,00 %
10.09.2018 17:34 21,8 C 21,1 C 20,0 C 67 % 1020,3 hPa 0,0 l/m 0 min 0 min 118 W/m 4,5 km/h (1 Bft) 100,00 %
10.09.2018 17:36 21,8 C 21,1 C 20,0 C 67 % 1020,2 hPa 0,0 l/m 0 min 0 min 115 W/m 4,5 km/h (1 Bft) 100,00 %
10.09.2018 17:38 21,7 C 21,1 C 20,0 C 67 % 1020,2 hPa 0,0 l/m 0 min 0 min 107 W/m 6,8 km/h (2 Bft) 100,00 %
10.09.2018 17:40 21,7 C 21,1 C 20,0 C 67 % 1020,2 hPa 0,0 l/m 0 min 0 min 104 W/m 4,5 km/h (1 Bft) 100,00 %
10.09.2018 17:42 21,7 C 21,1 C 20,0 C 67 % 1020,2 hPa 0,0 l/m 0 min 0 min 104 W/m 4,5 km/h (1 Bft) 100,00 %
10.09.2018 17:44 21,7 C 21,1 C 20,0 C 67 % 1020,1 hPa 0,0 l/m 0 min 0 min 98 W/m 2,3 km/h (1 Bft) 97,87 %
10.09.2018 17:46 21,7 C 21,1 C 20,0 C 67 % 1020,0 hPa 0,0 l/m 0 min 0 min 94 W/m 2,3 km/h (1 Bft) 100,00 %
10.09.2018 17:48 21,7 C 21,1 C 20,0 C 67 % 1020,0 hPa 0,0 l/m 0 min 0 min 92 W/m 0,0 km/h (0 Bft) 100,00 %
10.09.2018 17:50 21,7 C 20,6 C 20,0 C 67 % 1020,0 hPa 0,0 l/m 0 min 0 min 91 W/m 2,3 km/h (1 Bft) 100,00 %
10.09.2018 17:52 21,6 C 21,1 C 20,0 C 68 % 1020,0 hPa 0,0 l/m 0 min 0 min 90 W/m 4,5 km/h (1 Bft) 100,00 %
10.09.2018 17:54 21,6 C 20,6 C 20,0 C 68 % 1019,9 hPa 0,0 l/m 0 min 0 min 87 W/m 0,0 km/h (0 Bft) 100,00 %
10.09.2018 17:56 21,6 C 20,6 C 20,0 C 68 % 1020,0 hPa 0,0 l/m 0 min 0 min 86 W/m 0,0 km/h (0 Bft) 100,00 %
10.09.2018 17:58 21,6 C 20,6 C 20,0 C 68 % 1020,0 hPa 0,0 l/m 0 min 0 min 89 W/m 0,0 km/h (0 Bft) 100,00 %
10.09.2018 18:00 21,6 C 20,6 C 20,0 C 68 % 1020,0 hPa 0,0 l/m 0 min 0 min 91 W/m 0,0 km/h (0 Bft) 100,00 %
10.09.2018 18:02 21,6 C 20,6 C 20,0 C 68 % 1019,9 hPa 0,0 l/m 0 min 0 min 91 W/m 0,0 km/h (0 Bft) 100,00 %
10.09.2018 18:04 21,6 C 20,6 C 20,0 C 68 % 1019,9 hPa 0,0 l/m 0 min 0 min 90 W/m 2,3 km/h (1 Bft) 100,00 %
10.09.2018 18:07 21,6 C 20,6 C 20,0 C 68 % 1019,9 hPa 0,0 l/m 0 min 0 min 90 W/m 2,3 km/h (1 Bft) 98,57 %
10.09.2018 18:08 21,5 C 20,6 C 20,0 C 68 % 1019,9 hPa 0,0 l/m 0 min 0 min 89 W/m 2,3 km/h (1 Bft) 100,00 %
10.09.2018 18:10 21,5 C 20,6 C 20,0 C 68 % 1020,0 hPa 0,0 l/m 0 min 0 min 88 W/m 2,3 km/h (1 Bft) 100,00 %
10.09.2018 18:12 21,5 C 20,6 C 20,0 C 68 % 1020,0 hPa 0,0 l/m 0 min 0 min 86 W/m 2,3 km/h (1 Bft) 100,00 %
10.09.2018 18:14 21,4 C 20,6 C 20,0 C 67 % 1020,1 hPa 0,0 l/m 0 min 0 min 85 W/m 0,0 km/h (0 Bft) 100,00 %
10.09.2018 18:16 21,4 C 20,6 C 20,0 C 68 % 1020,1 hPa 0,0 l/m 0 min 0 min 80 W/m 2,3 km/h (1 Bft) 100,00 %
10.09.2018 18:18 21,4 C 20,6 C 20,0 C 68 % 1020,1 hPa 0,0 l/m 0 min 0 min 75 W/m 2,3 km/h (1 Bft) 97,87 %
10.09.2018 18:20 21,4 C 20,6 C 19,4 C 68 % 1020,0 hPa 0,0 l/m 0 min 0 min 72 W/m 0,0 km/h (0 Bft) 97,87 %
10.09.2018 18:22 21,4 C 20,6 C 19,4 C 68 % 1020,0 hPa 0,0 l/m 0 min 0 min 70 W/m 2,3 km/h (1 Bft) 100,00 %
10.09.2018 18:24 21,4 C 20,6 C 19,4 C 68 % 1020,0 hPa 0,0 l/m 0 min 0 min 69 W/m 4,5 km/h (1 Bft) 97,83 %
10.09.2018 18:26 21,4 C 20,6 C 19,4 C 68 % 1020,0 hPa 0,0 l/m 0 min 0 min 69 W/m 0,0 km/h (0 Bft) 100,00 %
10.09.2018 18:28 21,4 C 20,6 C 19,4 C 69 % 1020,0 hPa 0,0 l/m 0 min 0 min 67 W/m 0,0 km/h (0 Bft) 100,00 %
10.09.2018 18:30 21,4 C 20,6 C 19,4 C 69 % 1020,0 hPa 0,0 l/m 0 min 0 min 66 W/m 2,3 km/h (1 Bft) 97,87 %
10.09.2018 18:32 21,4 C 20,6 C 19,4 C 68 % 1020,0 hPa 0,0 l/m 0 min 0 min 61 W/m 0,0 km/h (0 Bft) 100,00 %
10.09.2018 18:34 21,3 C 20,6 C 19,4 C 68 % 1020,0 hPa 0,0 l/m 0 min 0 min 57 W/m 0,0 km/h (0 Bft) 97,87 %
10.09.2018 18:36 21,3 C 20,6 C 19,4 C 69 % 1019,9 hPa 0,0 l/m 0 min 0 min 57 W/m 0,0 km/h (0 Bft) 97,83 %
10.09.2018 18:38 21,3 C 20,6 C 19,4 C 69 % 1019,8 hPa 0,0 l/m 0 min 0 min 58 W/m 0,0 km/h (0 Bft) 97,87 %
10.09.2018 18:40 21,3 C 20,6 C 19,4 C 69 % 1019,9 hPa 0,0 l/m 0 min 0 min 58 W/m 0,0 km/h (0 Bft) 97,87 %
10.09.2018 18:42 21,3 C 20,6 C 19,4 C 69 % 1019,8 hPa 0,0 l/m 0 min 0 min 58 W/m 0,0 km/h (0 Bft) 93,62 %
10.09.2018 18:44 21,3 C 20,6 C 19,4 C 69 % 1019,8 hPa 0,0 l/m 0 min 0 min 54 W/m 2,3 km/h (1 Bft) 97,87 %
10.09.2018 18:46 21,3 C 20,6 C 19,4 C 69 % 1019,7 hPa 0,0 l/m 0 min 0 min 53 W/m 0,0 km/h (0 Bft) 97,87 %
10.09.2018 18:48 21,2 C 20,6 C 19,4 C 69 % 1019,7 hPa 0,0 l/m 0 min 0 min 51 W/m 0,0 km/h (0 Bft) 97,83 %
10.09.2018 18:50 21,2 C 20,0 C 19,4 C 69 % 1019,6 hPa 0,0 l/m 0 min 0 min 49 W/m 0,0 km/h (0 Bft) 95,74 %
10.09.2018 18:52 21,2 C 20,0 C 19,4 C 69 % 1019,6 hPa 0,0 l/m 0 min 0 min 47 W/m 0,0 km/h (0 Bft) 93,62 %
10.09.2018 18:54 21,2 C 20,0 C 19,4 C 69 % 1019,6 hPa 0,0 l/m 0 min 0 min 47 W/m 0,0 km/h (0 Bft) 93,62 %
10.09.2018 18:56 21,2 C 20,0 C 18,9 C 70 % 1019,6 hPa 0,0 l/m 0 min 0 min 48 W/m 0,0 km/h (0 Bft) 93,62 %
10.09.2018 18:58 21,2 C 20,0 C 18,9 C 70 % 1019,7 hPa 0,0 l/m 0 min 0 min 49 W/m 0,0 km/h (0 Bft) 93,62 %
10.09.2018 19:00 21,2 C 20,0 C 18,9 C 70 % 1019,8 hPa 0,0 l/m 0 min 0 min 49 W/m 0,0 km/h (0 Bft) 93,48 %
10.09.2018 19:02 21,2 C 20,0 C 18,9 C 70 % 1019,8 hPa 0,0 l/m 0 min 0 min 47 W/m 0,0 km/h (0 Bft) 93,88 %
10.09.2018 19:04 21,1 C 20,0 C 18,9 C 70 % 1019,8 hPa 0,0 l/m 0 min 0 min 46 W/m 2,3 km/h (1 Bft) 93,48 %
10.09.2018 19:06 21,1 C 20,0 C 18,9 C 69 % 1019,8 hPa 0,0 l/m 0 min 0 min 44 W/m 0,0 km/h (0 Bft) 93,62 %
10.09.2018 19:08 21,1 C 20,0 C 18,9 C 70 % 1019,9 hPa 0,0 l/m 0 min 0 min 41 W/m 0,0 km/h (0 Bft) 91,49 %
10.09.2018 19:10 21,0 C 20,0 C 18,9 C 70 % 1019,9 hPa 0,0 l/m 0 min 0 min 40 W/m 0,0 km/h (0 Bft) 89,36 %
10.09.2018 19:12 21,0 C 20,0 C 18,9 C 70 % 1019,8 hPa 0,0 l/m 0 min 0 min 39 W/m 0,0 km/h (0 Bft) 91,49 %
10.09.2018 19:14 21,0 C 20,0 C 18,9 C 70 % 1019,9 hPa 0,0 l/m 0 min 0 min 38 W/m 0,0 km/h (0 Bft) 93,62 %
10.09.2018 19:16 21,0 C 19,4 C 18,9 C 70 % 1019,9 hPa 0,0 l/m 0 min 0 min 37 W/m 0,0 km/h (0 Bft) 93,48 %
10.09.2018 19:18 21,0 C 19,4 C 18,3 C 70 % 1019,9 hPa 0,0 l/m 0 min 0 min 37 W/m 0,0 km/h (0 Bft) 93,62 %
10.09.2018 19:20 20,9 C 19,4 C 18,3 C 71 % 1019,9 hPa 0,0 l/m 0 min 0 min 35 W/m 0,0 km/h (0 Bft) 93,62 %
10.09.2018 19:22 20,9 C 19,4 C 18,3 C 71 % 1019,8 hPa 0,0 l/m 0 min 0 min 35 W/m 0,0 km/h (0 Bft) 91,49 %
10.09.2018 19:24 20,9 C 19,4 C 18,3 C 71 % 1019,8 hPa 0,0 l/m 0 min 0 min 33 W/m 0,0 km/h (0 Bft) 93,62 %
10.09.2018 19:26 20,9 C 19,4 C 18,3 C 70 % 1019,7 hPa 0,0 l/m 0 min 0 min 32 W/m 0,0 km/h (0 Bft) 93,62 %
10.09.2018 19:28 20,9 C 19,4 C 18,3 C 70 % 1019,7 hPa 0,0 l/m 0 min 0 min 30 W/m 0,0 km/h (0 Bft) 91,30 %
10.09.2018 19:30 20,8 C 19,4 C 18,3 C 71 % 1019,7 hPa 0,0 l/m 0 min 0 min 27 W/m 0,0 km/h (0 Bft) 97,87 %
10.09.2018 19:32 20,8 C 19,4 C 18,3 C 71 % 1019,8 hPa 0,0 l/m 0 min 0 min 25 W/m 0,0 km/h (0 Bft) 95,74 %
10.09.2018 19:34 20,8 C 18,9 C 18,3 C 71 % 1019,8 hPa 0,0 l/m 0 min 0 min 22 W/m 0,0 km/h (0 Bft) 95,74 %
10.09.2018 19:36 20,7 C 18,9 C 17,8 C 71 % 1019,8 hPa 0,0 l/m 0 min 0 min 19 W/m 0,0 km/h (0 Bft) 93,62 %
10.09.2018 19:38 20,7 C 18,9 C 17,8 C 71 % 1019,8 hPa 0,0 l/m 0 min 0 min 16 W/m 0,0 km/h (0 Bft) 95,74 %
10.09.2018 19:40 20,7 C 18,9 C 17,8 C 71 % 1019,7 hPa 0,0 l/m 0 min 0 min 14 W/m 0,0 km/h (0 Bft) 95,65 %
10.09.2018 19:42 20,6 C 18,9 C 17,8 C 71 % 1019,7 hPa 0,0 l/m 0 min 0 min 12 W/m 0,0 km/h (0 Bft) 97,87 %
10.09.2018 19:44 20,6 C 18,9 C 17,8 C 70 % 1019,6 hPa 0,0 l/m 0 min 0 min 11 W/m 0,0 km/h (0 Bft) 97,87 %
10.09.2018 19:46 20,6 C 18,9 C 17,8 C 71 % 1019,7 hPa 0,0 l/m 0 min 0 min 9 W/m 0,0 km/h (0 Bft) 100,00 %
10.09.2018 19:48 20,5 C 18,9 C 17,8 C 71 % 1019,8 hPa 0,0 l/m 0 min 0 min 7 W/m 0,0 km/h (0 Bft) 97,87 %
10.09.2018 19:50 20,5 C 18,9 C 17,8 C 71 % 1019,7 hPa 0,0 l/m 0 min 0 min 5 W/m 0,0 km/h (0 Bft) 97,83 %
10.09.2018 19:52 20,4 C 18,9 C 17,8 C 71 % 1019,8 hPa 0,0 l/m 0 min 0 min 5 W/m 0,0 km/h (0 Bft) 97,87 %
10.09.2018 19:54 20,4 C 18,9 C 17,8 C 71 % 1019,8 hPa 0,0 l/m 0 min 0 min 0 W/m 0,0 km/h (0 Bft) 97,87 %
10.09.2018 19:56 20,4 C 18,9 C 17,8 C 71 % 1019,8 hPa 0,0 l/m 0 min 0 min 0 W/m 0,0 km/h (0 Bft) 100,00 %
10.09.2018 19:58 20,3 C 18,9 C 17,8 C 71 % 1019,9 hPa 0,0 l/m 0 min 0 min 0 W/m 0,0 km/h (0 Bft) 100,00 %
10.09.2018 20:00 20,3 C 18,9 C 17,8 C 71 % 1020,0 hPa 0,0 l/m 0 min 0 min 0 W/m 0,0 km/h (0 Bft) 97,87 %
10.09.2018 20:02 20,3 C 18,9 C 17,8 C 72 % 1020,0 hPa 0,0 l/m 0 min 0 min 0 W/m 0,0 km/h (0 Bft) 100,00 %
10.09.2018 20:04 20,2 C 18,9 C 17,8 C 72 % 1020,1 hPa 0,0 l/m 0 min 0 min 0 W/m 0,0 km/h (0 Bft) 100,00 %
10.09.2018 20:06 20,2 C 18,9 C 17,8 C 72 % 1020,1 hPa 0,0 l/m 0 min 0 min 0 W/m 0,0 km/h (0 Bft) 100,00 %
10.09.2018 20:08 20,2 C 18,9 C 17,8 C 72 % 1020,2 hPa 0,0 l/m 0 min 0 min 0 W/m 0,0 km/h (0 Bft) 100,00 %
10.09.2018 20:10 20,2 C 18,9 C 17,8 C 73 % 1020,2 hPa 0,0 l/m 0 min 0 min 0 W/m 0,0 km/h (0 Bft) 100,00 %
10.09.2018 20:12 20,2 C 18,9 C 17,8 C 73 % 1020,2 hPa 0,0 l/m 0 min 0 min 0 W/m 0,0 km/h (0 Bft) 97,92 %
10.09.2018 20:14 20,1 C 18,3 C 17,8 C 74 % 1020,2 hPa 0,0 l/m 0 min 0 min 0 W/m 0,0 km/h (0 Bft) 97,83 %
10.09.2018 20:16 20,1 C 18,3 C 17,2 C 74 % 1020,3 hPa 0,0 l/m 0 min 0 min 0 W/m 0,0 km/h (0 Bft) 100,00 %
10.09.2018 20:18 20,1 C 18,3 C 17,2 C 74 % 1020,4 hPa 0,0 l/m 0 min 0 min 0 W/m 0,0 km/h (0 Bft) 100,00 %
10.09.2018 20:20 20,0 C 18,3 C 17,2 C 75 % 1020,4 hPa 0,0 l/m 0 min 0 min 0 W/m 0,0 km/h (0 Bft) 97,87 %
10.09.2018 20:22 20,0 C 18,3 C 17,2 C 75 % 1020,3 hPa 0,0 l/m 0 min 0 min 0 W/m 0,0 km/h (0 Bft) 97,87 %
10.09.2018 20:24 19,9 C 18,3 C 17,2 C 75 % 1020,3 hPa 0,0 l/m 0 min 0 min 0 W/m 0,0 km/h (0 Bft) 100,00 %
10.09.2018 20:26 19,9 C 18,3 C 17,2 C 75 % 1020,2 hPa 0,0 l/m 0 min 0 min 0 W/m 0,0 km/h (0 Bft) 100,00 %
10.09.2018 20:28 19,9 C 18,3 C 17,2 C 74 % 1020,3 hPa 0,0 l/m 0 min 0 min 0 W/m 0,0 km/h (0 Bft) 100,00 %
10.09.2018 20:30 19,8 C 18,3 C 17,2 C 74 % 1020,3 hPa 0,0 l/m 0 min 0 min 0 W/m 0,0 km/h (0 Bft) 100,00 %
10.09.2018 20:32 19,8 C 18,3 C 17,2 C 74 % 1020,2 hPa 0,0 l/m 0 min 0 min 0 W/m 0,0 km/h (0 Bft) 100,00 %
10.09.2018 20:34 19,8 C 18,3 C 17,2 C 74 % 1020,2 hPa 0,0 l/m 0 min 0 min 0 W/m 0,0 km/h (0 Bft) 97,87 %
10.09.2018 20:36 19,7 C 18,3 C 17,2 C 74 % 1020,2 hPa 0,0 l/m 0 min 0 min 0 W/m 0,0 km/h (0 Bft) 100,00 %
10.09.2018 20:38 19,7 C 18,3 C 17,2 C 74 % 1020,2 hPa 0,0 l/m 0 min 0 min 0 W/m 0,0 km/h (0 Bft) 100,00 %
10.09.2018 20:40 19,7 C 18,3 C 17,2 C 74 % 1020,3 hPa 0,0 l/m 0 min 0 min 0 W/m 0,0 km/h (0 Bft) 97,87 %
10.09.2018 20:42 19,6 C 17,8 C 16,7 C 74 % 1020,3 hPa 0,0 l/m 0 min 0 min 0 W/m 0,0 km/h (0 Bft) 100,00 %
10.09.2018 20:44 19,6 C 17,8 C 16,7 C 75 % 1020,3 hPa 0,0 l/m 0 min 0 min 0 W/m 0,0 km/h (0 Bft) 100,00 %
10.09.2018 20:46 19,6 C 17,8 C 16,7 C 75 % 1020,2 hPa 0,0 l/m 0 min 0 min 0 W/m 0,0 km/h (0 Bft) 100,00 %
10.09.2018 20:48 19,5 C 17,2 C 16,7 C 76 % 1020,2 hPa 0,0 l/m 0 min 0 min 0 W/m 0,0 km/h (0 Bft) 100,00 %
10.09.2018 20:50 19,4 C 17,2 C 16,7 C 76 % 1020,2 hPa 0,0 l/m 0 min 0 min 0 W/m 0,0 km/h (0 Bft) 100,00 %
10.09.2018 20:52 19,4 C 17,2 C 16,7 C 76 % 1020,3 hPa 0,0 l/m 0 min 0 min 0 W/m 0,0 km/h (0 Bft) 100,00 %
10.09.2018 20:54 19,3 C 17,2 C 16,7 C 76 % 1020,2 hPa 0,0 l/m 0 min 0 min 0 W/m 0,0 km/h (0 Bft) 97,87 %
10.09.2018 20:56 19,3 C 17,2 C 16,7 C 76 % 1020,2 hPa 0,0 l/m 0 min 0 min 0 W/m 0,0 km/h (0 Bft) 100,00 %
10.09.2018 20:58 19,2 C 17,2 C 16,1 C 77 % 1020,1 hPa 0,0 l/m 0 min 0 min 0 W/m 0,0 km/h (0 Bft) 97,87 %
10.09.2018 21:00 19,2 C 17,8 C 16,1 C 76 % 1020,1 hPa 0,0 l/m 0 min 0 min 0 W/m 0,0 km/h (0 Bft) 97,83 %
10.09.2018 21:02 19,1 C 17,8 C 16,1 C 76 % 1020,0 hPa 0,0 l/m 0 min 0 min 0 W/m 2,3 km/h (1 Bft) 100,00 %
10.09.2018 21:04 19,1 C 17,8 C 16,7 C 76 % 1019,9 hPa 0,0 l/m 0 min 0 min 0 W/m 2,3 km/h (1 Bft) 100,00 %
10.09.2018 21:06 19,1 C 17,8 C 16,7 C 77 % 1019,9 hPa 0,0 l/m 0 min 0 min 0 W/m 2,3 km/h (1 Bft) 100,00 %
10.09.2018 21:08 19,0 C 17,8 C 16,7 C 77 % 1019,9 hPa 0,0 l/m 0 min 0 min 0 W/m 4,5 km/h (1 Bft) 100,00 %
10.09.2018 21:10 19,0 C 17,8 C 16,7 C 77 % 1020,0 hPa 0,0 l/m 0 min 0 min 0 W/m 4,5 km/h (1 Bft) 100,00 %
10.09.2018 21:12 18,9 C 17,8 C 16,7 C 77 % 1019,9 hPa 0,0 l/m 0 min 0 min 0 W/m 2,3 km/h (1 Bft) 100,00 %
10.09.2018 21:14 18,9 C 17,8 C 16,7 C 77 % 1019,9 hPa 0,0 l/m 0 min 0 min 0 W/m 2,3 km/h (1 Bft) 100,00 %
10.09.2018 21:16 18,9 C 17,8 C 16,7 C 77 % 1019,9 hPa 0,0 l/m 0 min 0 min 0 W/m 2,3 km/h (1 Bft) 97,87 %
10.09.2018 21:18 18,8 C 17,8 C 16,7 C 78 % 1019,9 hPa 0,0 l/m 0 min 0 min 0 W/m 2,3 km/h (1 Bft) 97,87 %
10.09.2018 21:20 18,8 C 17,8 C 16,7 C 78 % 1019,9 hPa 0,0 l/m 0 min 0 min 0 W/m 4,5 km/h (1 Bft) 100,00 %
10.09.2018 21:22 18,8 C 17,8 C 16,7 C 78 % 1019,9 hPa 0,0 l/m 0 min 0 min 0 W/m 0,0 km/h (0 Bft) 100,00 %
10.09.2018 21:24 18,8 C 17,8 C 16,7 C 78 % 1019,8 hPa 0,0 l/m 0 min 0 min 0 W/m 4,5 km/h (1 Bft) 95,65 %
10.09.2018 21:26 18,8 C 17,8 C 16,7 C 78 % 1019,9 hPa 0,0 l/m 0 min 0 min 0 W/m 0,0 km/h (0 Bft) 95,74 %
10.09.2018 21:28 18,7 C 17,8 C 16,7 C 78 % 1019,9 hPa 0,0 l/m 0 min 0 min 0 W/m 2,3 km/h (1 Bft) 100,00 %
10.09.2018 21:30 18,7 C 17,8 C 16,7 C 79 % 1019,8 hPa 0,0 l/m 0 min 0 min 0 W/m 2,3 km/h (1 Bft) 97,87 %
10.09.2018 21:32 18,7 C 17,2 C 16,7 C 79 % 1019,8 hPa 0,0 l/m 0 min 0 min 0 W/m 2,3 km/h (1 Bft) 97,87 %
10.09.2018 21:34 18,7 C 17,2 C 16,7 C 79 % 1019,9 hPa 0,0 l/m 0 min 0 min 0 W/m 2,3 km/h (1 Bft) 97,87 %
10.09.2018 21:36 18,6 C 17,2 C 16,7 C 79 % 1019,8 hPa 0,0 l/m 0 min 0 min 0 W/m 2,3 km/h (1 Bft) 97,83 %
10.09.2018 21:38 18,6 C 17,2 C 16,7 C 79 % 1019,8 hPa 0,0 l/m 0 min 0 min 0 W/m 0,0 km/h (0 Bft) 93,62 %
10.09.2018 21:40 18,6 C 17,2 C 16,7 C 80 % 1019,8 hPa 0,0 l/m 0 min 0 min 0 W/m 0,0 km/h (0 Bft) 95,74 %
10.09.2018 21:42 18,6 C 17,2 C 16,7 C 79 % 1019,9 hPa 0,0 l/m 0 min 0 min 0 W/m 2,3 km/h (1 Bft) 95,74 %
10.09.2018 21:44 18,5 C 17,2 C 16,7 C 79 % 1019,9 hPa 0,0 l/m 0 min 0 min 0 W/m 0,0 km/h (0 Bft) 95,74 %
10.09.2018 21:46 18,5 C 17,2 C 16,7 C 79 % 1019,9 hPa 0,0 l/m 0 min 0 min 0 W/m 2,3 km/h (1 Bft) 93,62 %
10.09.2018 21:48 18,4 C 17,2 C 16,7 C 79 % 1019,9 hPa 0,0 l/m 0 min 0 min 0 W/m 2,3 km/h (1 Bft) 95,65 %
10.09.2018 21:50 18,4 C 17,2 C 16,7 C 79 % 1019,9 hPa 0,0 l/m 0 min 0 min 0 W/m 0,0 km/h (0 Bft) 95,74 %
10.09.2018 21:52 18,4 C 17,2 C 17,2 C 79 % 1019,8 hPa 0,0 l/m 0 min 0 min 0 W/m 4,5 km/h (1 Bft) 95,74 %
10.09.2018 21:54 18,3 C 17,2 C 17,2 C 79 % 1019,8 hPa 0,0 l/m 0 min 0 min 0 W/m 2,3 km/h (1 Bft) 95,74 %
10.09.2018 21:56 18,3 C 17,2 C 17,2 C 79 % 1019,8 hPa 0,0 l/m 0 min 0 min 0 W/m 2,3 km/h (1 Bft) 93,62 %
10.09.2018 21:58 18,3 C 17,2 C 17,2 C 79 % 1019,9 hPa 0,0 l/m 0 min 0 min 0 W/m 2,3 km/h (1 Bft) 93,62 %
10.09.2018 22:00 18,2 C 17,2 C 16,7 C 79 % 1019,9 hPa 0,0 l/m 0 min 0 min 0 W/m 0,0 km/h (0 Bft) 95,65 %
10.09.2018 22:02 18,2 C 16,7 C 16,7 C 79 % 1019,9 hPa 0,0 l/m 0 min 0 min 0 W/m 2,3 km/h (1 Bft) 93,62 %
10.09.2018 22:04 18,2 C 16,7 C 16,7 C 79 % 1019,9 hPa 0,0 l/m 0 min 0 min 0 W/m 0,0 km/h (0 Bft) 95,74 %
10.09.2018 22:06 18,2 C 16,7 C 16,7 C 79 % 1020,0 hPa 0,0 l/m 0 min 0 min 0 W/m 2,3 km/h (1 Bft) 95,74 %
10.09.2018 22:08 18,2 C 16,7 C 16,7 C 79 % 1020,0 hPa 0,0 l/m 0 min 0 min 0 W/m 0,0 km/h (0 Bft) 95,74 %
10.09.2018 22:10 18,1 C 16,7 C 16,7 C 79 % 1020,0 hPa 0,0 l/m 0 min 0 min 0 W/m 0,0 km/h (0 Bft) 95,74 %
10.09.2018 22:12 18,1 C 16,7 C 16,7 C 79 % 1020,0 hPa 0,0 l/m 0 min 0 min 0 W/m 0,0 km/h (0 Bft) 95,65 %
10.09.2018 22:14 18,1 C 16,7 C 16,7 C 79 % 1020,0 hPa 0,0 l/m 0 min 0 min 0 W/m 2,3 km/h (1 Bft) 95,74 %
10.09.2018 22:16 18,1 C 16,7 C 16,7 C 79 % 1020,0 hPa 0,0 l/m 0 min 0 min 0 W/m 0,0 km/h (0 Bft) 95,74 %
10.09.2018 22:18 18,0 C 16,7 C 16,7 C 79 % 1020,1 hPa 0,0 l/m 0 min 0 min 0 W/m 2,3 km/h (1 Bft) 97,87 %
10.09.2018 22:20 18,0 C 16,7 C 16,7 C 79 % 1020,0 hPa 0,0 l/m 0 min 0 min 0 W/m 2,3 km/h (1 Bft) 95,74 %
10.09.2018 22:22 17,9 C 16,7 C 16,7 C 79 % 1020,0 hPa 0,0 l/m 0 min 0 min 0 W/m 0,0 km/h (0 Bft) 95,65 %
10.09.2018 22:24 17,9 C 16,7 C 16,7 C 79 % 1020,1 hPa 0,0 l/m 0 min 0 min 0 W/m 0,0 km/h (0 Bft) 95,74 %
10.09.2018 22:26 17,9 C 16,7 C 16,7 C 79 % 1020,1 hPa 0,0 l/m 0 min 0 min 0 W/m 0,0 km/h (0 Bft) 95,74 %
10.09.2018 22:28 17,9 C 16,7 C 16,7 C 79 % 1020,1 hPa 0,0 l/m 0 min 0 min 0 W/m 0,0 km/h (0 Bft) 93,62 %
10.09.2018 22:30 17,9 C 16,7 C 16,7 C 79 % 1020,1 hPa 0,0 l/m 0 min 0 min 0 W/m 4,5 km/h (1 Bft) 97,87 %
10.09.2018 22:32 17,8 C 16,7 C 16,7 C 79 % 1020,1 hPa 0,0 l/m 0 min 0 min 0 W/m 2,3 km/h (1 Bft) 95,83 %
10.09.2018 22:34 17,8 C 16,7 C 16,7 C 79 % 1020,1 hPa 0,0 l/m 0 min 0 min 0 W/m 2,3 km/h (1 Bft) 97,83 %
10.09.2018 22:36 17,8 C 16,7 C 16,7 C 79 % 1020,1 hPa 0,0 l/m 0 min 0 min 0 W/m 0,0 km/h (0 Bft) 95,74 %
10.09.2018 22:38 17,8 C 16,7 C 16,7 C 79 % 1020,1 hPa 0,0 l/m 0 min 0 min 0 W/m 0,0 km/h (0 Bft) 97,87 %
10.09.2018 22:40 17,7 C 16,7 C 16,7 C 79 % 1020,1 hPa 0,0 l/m 0 min 0 min 0 W/m 0,0 km/h (0 Bft) 97,87 %
10.09.2018 22:42 17,7 C 16,7 C 16,7 C 79 % 1020,1 hPa 0,0 l/m 0 min 0 min 0 W/m 0,0 km/h (0 Bft) 97,87 %
10.09.2018 22:44 17,7 C 16,7 C 16,7 C 79 % 1020,1 hPa 0,0 l/m 0 min 0 min 0 W/m 2,3 km/h (1 Bft) 97,87 %
10.09.2018 22:46 17,7 C 16,7 C 16,7 C 80 % 1020,2 hPa 0,0 l/m 0 min 0 min 0 W/m 0,0 km/h (0 Bft) 97,87 %
10.09.2018 22:48 17,7 C 16,7 C 16,7 C 80 % 1020,1 hPa 0,0 l/m 0 min 0 min 0 W/m 0,0 km/h (0 Bft) 97,83 %
10.09.2018 22:50 17,6 C 16,7 C 16,7 C 80 % 1020,1 hPa 0,0 l/m 0 min 0 min 0 W/m 2,3 km/h (1 Bft) 95,74 %
10.09.2018 22:52 17,6 C 16,7 C 16,7 C 80 % 1020,1 hPa 0,0 l/m 0 min 0 min 0 W/m 2,3 km/h (1 Bft) 97,87 %
10.09.2018 22:54 17,6 C 16,7 C 16,7 C 80 % 1020,2 hPa 0,0 l/m 0 min 0 min 0 W/m 4,5 km/h (1 Bft) 97,87 %
10.09.2018 22:56 17,6 C 16,7 C 16,1 C 80 % 1020,2 hPa 0,0 l/m 0 min 0 min 0 W/m 0,0 km/h (0 Bft) 95,74 %
10.09.2018 22:58 17,6 C 16,7 C 16,1 C 80 % 1020,2 hPa 0,0 l/m 0 min 0 min 0 W/m 2,3 km/h (1 Bft) 97,83 %
10.09.2018 23:00 17,6 C 16,7 C 16,1 C 80 % 1020,2 hPa 0,0 l/m 0 min 0 min 0 W/m 0,0 km/h (0 Bft) 97,87 %
10.09.2018 23:02 17,5 C 16,1 C 16,1 C 80 % 1020,2 hPa 0,0 l/m 0 min 0 min 0 W/m 0,0 km/h (0 Bft) 93,62 %
10.09.2018 23:04 17,5 C 16,1 C 16,1 C 80 % 1020,3 hPa 0,0 l/m 0 min 0 min 0 W/m 0,0 km/h (0 Bft) 97,87 %
10.09.2018 23:06 17,5 C 16,1 C 16,1 C 80 % 1020,2 hPa 0,0 l/m 0 min 0 min 0 W/m 2,3 km/h (1 Bft) 97,14 %
10.09.2018 23:08 17,4 C 16,1 C 16,1 C 80 % 1020,3 hPa 0,0 l/m 0 min 0 min 0 W/m 0,0 km/h (0 Bft) 95,74 %
10.09.2018 23:10 17,4 C 16,1 C 16,1 C 81 % 1020,3 hPa 0,0 l/m 0 min 0 min 0 W/m 2,3 km/h (1 Bft) 97,87 %
10.09.2018 23:12 17,4 C 16,1 C 16,1 C 81 % 1020,3 hPa 0,0 l/m 0 min 0 min 0 W/m 0,0 km/h (0 Bft) 97,83 %
10.09.2018 23:14 17,4 C 16,1 C 16,1 C 81 % 1020,3 hPa 0,0 l/m 0 min 0 min 0 W/m 0,0 km/h (0 Bft) 97,87 %
10.09.2018 23:16 17,4 C 16,1 C 15,6 C 81 % 1020,3 hPa 0,0 l/m 0 min 0 min 0 W/m 0,0 km/h (0 Bft) 97,87 %
10.09.2018 23:18 17,3 C 15,6 C 15,6 C 81 % 1020,3 hPa 0,0 l/m 0 min 0 min 0 W/m 0,0 km/h (0 Bft) 95,74 %
10.09.2018 23:20 17,3 C 15,6 C 15,6 C 81 % 1020,4 hPa 0,0 l/m 0 min 0 min 0 W/m 0,0 km/h (0 Bft) 97,87 %
10.09.2018 23:22 17,3 C 15,6 C 15,6 C 81 % 1020,3 hPa 0,0 l/m 0 min 0 min 0 W/m 0,0 km/h (0 Bft) 97,87 %
10.09.2018 23:24 17,3 C 15,6 C 15,6 C 81 % 1020,3 hPa 0,0 l/m 0 min 0 min 0 W/m 0,0 km/h (0 Bft) 97,83 %
10.09.2018 23:26 17,3 C 15,6 C 15,0 C 81 % 1020,4 hPa 0,0 l/m 0 min 0 min 0 W/m 0,0 km/h (0 Bft) 97,87 %
10.09.2018 23:28 17,2 C 15,6 C 15,0 C 81 % 1020,3 hPa 0,0 l/m 0 min 0 min 0 W/m 0,0 km/h (0 Bft) 97,87 %
10.09.2018 23:30 17,2 C 15,6 C 15,0 C 81 % 1020,3 hPa 0,0 l/m 0 min 0 min 0 W/m 0,0 km/h (0 Bft) 100,00 %
10.09.2018 23:32 17,2 C 15,6 C 15,0 C 81 % 1020,4 hPa 0,0 l/m 0 min 0 min 0 W/m 0,0 km/h (0 Bft) 100,00 %
10.09.2018 23:34 17,1 C 15,0 C 15,0 C 82 % 1020,4 hPa 0,0 l/m 0 min 0 min 0 W/m 0,0 km/h (0 Bft) 95,74 %
10.09.2018 23:36 17,1 C 15,0 C 15,0 C 82 % 1020,4 hPa 0,0 l/m 0 min 0 min 0 W/m 0,0 km/h (0 Bft) 100,00 %
10.09.2018 23:38 17,0 C 15,0 C 15,0 C 82 % 1020,4 hPa 0,0 l/m 0 min 0 min 0 W/m 0,0 km/h (0 Bft) 100,00 %
10.09.2018 23:40 16,9 C 15,0 C 15,0 C 82 % 1020,5 hPa 0,0 l/m 0 min 0 min 0 W/m 0,0 km/h (0 Bft) 100,00 %
10.09.2018 23:42 16,9 C 15,0 C 15,0 C 82 % 1020,5 hPa 0,0 l/m 0 min 0 min 0 W/m 0,0 km/h (0 Bft) 97,87 %
10.09.2018 23:44 16,9 C 15,0 C 15,0 C 82 % 1020,6 hPa 0,0 l/m 0 min 0 min 0 W/m 0,0 km/h (0 Bft) 97,87 %
10.09.2018 23:46 16,8 C 15,0 C 15,0 C 82 % 1020,5 hPa 0,0 l/m 0 min 0 min 0 W/m 0,0 km/h (0 Bft) 100,00 %
10.09.2018 23:48 16,8 C 15,0 C 15,0 C 82 % 1020,6 hPa 0,0 l/m 0 min 0 min 0 W/m 0,0 km/h (0 Bft) 100,00 %
10.09.2018 23:50 16,8 C 15,0 C 15,0 C 82 % 1020,5 hPa 0,0 l/m 0 min 0 min 0 W/m 0,0 km/h (0 Bft) 97,87 %
10.09.2018 23:52 16,7 C 15,0 C 15,0 C 82 % 1020,6 hPa 0,0 l/m 0 min 0 min 0 W/m 0,0 km/h (0 Bft) 97,87 %
10.09.2018 23:54 16,7 C 15,0 C 14,4 C 82 % 1020,6 hPa 0,0 l/m 0 min 0 min 0 W/m 0,0 km/h (0 Bft) 93,62 %
10.09.2018 23:56 16,7 C 14,4 C 14,4 C 82 % 1020,6 hPa 0,0 l/m 0 min 0 min 0 W/m 0,0 km/h (0 Bft) 100,00 %
10.09.2018 23:58 16,6 C 14,4 C 14,4 C 82 % 1020,6 hPa 0,0 l/m 0 min 0 min 0 W/m 0,0 km/h (0 Bft) 100,00 %
_ Min-Zeit 04:26 04:00 03:58 14:10 02:28 - - - - 00:02 00:02
Minimum _ 14,2 C 12,8 C 12,8 C 65 % 1017,3 hPa - - - - 0,0 km/h (0 Bft) 12,50 %
_ Max-Zeit 13:54 11:34 13:38 07:56 23:44 00:00 09:20 00:00 11:38 14:20 00:00
Maximum _ 22,3 C 26,1 C 20,6 C 90 % 1020,6 hPa 0,0 l/m 2 min 0 min 610 W/m 11,3 km/h
O (2 Bft)
100,00 %
Durchschnitt _ 18,3 C 18,0 C 16,8 C 78 % 1019,3 hPa #0,0 l/m #3:58 h #0 min. 208 W/m 2,6 km/h (1 Bft) 97,35 %
© 2018 W. Hausmann